M I D A S
Marine Information and Data Acquisition System
Tripno 2217 of the Zeeleeuw from 2011-12-01 08:20:22 to 2011-12-02 14:58:56
Back to CruiseResearch ActivitiesStationsMapUnderway DataData graphs

EquipmentUnitsComment
TimeDGPSUTC
LatitudeDGPSDM.mWGS84
LongitudeDGPSDM.mWGS84
TemperatureSBE03/SBE38deg celciusITS90
ConductivitySBE21S/mITS90
SalinitySBE21 Practical Salinity Units
ChlorophylAChelsea fluorimeterg/lCalibrated in Aceton
Missing or incorrect values are displayed as -999
Sea surface data collected by the RV Zeeleeuw from 2011-12-01 08:17:04 to 2011-12-02 15:09:33
                                                                                    Next 1000 lines
Time Latitude Longitude Temperature Conductivity Salinity ChlorophylA
2011-12-01 08:17:14 51°13.636 2°56.013 15.0825 0.094016 0.522678 -3.020363
2011-12-01 08:17:19 51°13.637 2°56.009 15.1592 0.093913 0.522074 -3.020363
2011-12-01 08:17:24 51°13.638 2°56.005 15.2065 0.093913 0.522074 -3.020363
2011-12-01 08:17:29 51°13.639 2°55.999 15.2688 0.094016 0.522668 -3.020363
2011-12-01 08:17:35 51°13.64 2°55.992 15.3095 0.094016 0.522659 -3.020363
2011-12-01 08:17:40 51°13.641 2°55.986 15.3051 0.094016 0.52265 -3.020363
2011-12-01 08:17:46 51°13.642 2°55.979 15.2906 0.094016 0.522659 -3.020363
2011-12-01 08:17:51 51°13.643 2°55.974 15.2052 0.094016 0.522659 -3.020363
2011-12-01 08:17:57 51°13.645 2°55.966 15.2179 0.094016 0.522659 -3.020363
2011-12-01 08:18:02 51°13.647 2°55.96 15.1708 0.094016 0.522678 -3.020363
2011-12-01 08:18:07 51°13.648 2°55.953 15.2097 0.093913 0.522093 -3.020363
2011-12-01 08:18:13 51°13.65 2°55.944 15.2312 0.093913 0.522102 -3.020363
2011-12-01 08:18:18 51°13.651 2°55.937 15.2553 0.094016 0.522706 -3.020363
2011-12-01 08:18:22 51°13.653 2°55.931 15.2417 0.093913 0.522121 -3.020363
2011-12-01 08:18:27 51°13.654 2°55.923 15.2491 0.093913 0.522121 -3.020363
2011-12-01 08:18:32 51°13.656 2°55.916 15.2552 0.093913 0.522121 -3.020363
2011-12-01 08:18:38 51°13.658 2°55.906 15.2186 0.093913 0.522131 -3.020363
2011-12-01 08:18:42 51°13.659 2°55.9 15.2105 0.093913 0.52214 -3.020363
2011-12-01 08:18:47 51°13.661 2°55.891 15.2391 0.093913 0.52214 -3.020363
2011-12-01 08:18:52 51°13.663 2°55.883 15.277 0.093913 0.52214 -3.020363
2011-12-01 08:18:58 51°13.665 2°55.872 15.2789 0.093913 0.52214 -3.020363
2011-12-01 08:19:03 51°13.668 2°55.864 15.2755 0.093913 0.52214 -3.020363
2011-12-01 08:19:07 51°13.67 2°55.857 15.2856 0.093913 0.52214 -3.020363
2011-12-01 08:19:12 51°13.672 2°55.848 15.2669 0.093913 0.52214 -3.020363
2011-12-01 08:19:18 51°13.676 2°55.838 15.2602 0.093913 0.52214 -3.020363
2011-12-01 08:19:23 51°13.68 2°55.829 15.2742 0.093913 0.522149 -3.020363
2011-12-01 08:19:27 51°13.683 2°55.822 15.2862 0.093913 0.522149 -3.020363
2011-12-01 08:19:32 51°13.686 2°55.813 15.2908 0.094016 0.522744 -3.020363
2011-12-01 08:19:37 51°13.69 2°55.804 15.2895 0.093913 0.522159 -3.020363
2011-12-01 08:19:42 51°13.694 2°55.795 15.2709 0.093913 0.522159 -3.020363
2011-12-01 08:19:47 51°13.698 2°55.786 15.2575 0.093913 0.522168 -3.020363
2011-12-01 08:19:52 51°13.703 2°55.778 15.2582 0.093913 0.522168 -3.020363
2011-12-01 08:19:57 51°13.707 2°55.769 15.2764 0.093913 0.522168 -3.020363
2011-12-01 08:20:02 51°13.712 2°55.76 15.2755 0.094016 0.522772 -3.020363
2011-12-01 08:20:07 51°13.717 2°55.752 15.2619 0.093913 0.522178 -3.020363
2011-12-01 08:20:12 51°13.722 2°55.743 15.2513 0.093913 0.522187 -3.020363
2011-12-01 08:20:17 51°13.728 2°55.734 15.2605 0.093913 0.522187 -3.020363
2011-12-01 08:20:22 51°13.733 2°55.726 15.2657 0.093913 0.522187 -3.020363
2011-12-01 08:20:27 51°13.739 2°55.718 15.2604 0.093913 0.522187 -3.020363
2011-12-01 08:20:33 51°13.746 2°55.707 15.2543 0.093913 0.522196 -3.020363
2011-12-01 08:20:38 51°13.752 2°55.699 15.2684 0.093913 0.522196 -3.020363
2011-12-01 08:20:42 51°13.756 2°55.693 15.2789 0.093913 0.522196 -3.020363
2011-12-01 08:20:47 51°13.763 2°55.685 15.2778 0.093913 0.522196 -3.020363
2011-12-01 08:20:53 51°13.771 2°55.676 15.2759 0.093913 0.522206 -3.020363
2011-12-01 08:20:58 51°13.779 2°55.671 15.2759 0.093913 0.522206 -3.020363
2011-12-01 08:21:02 51°13.784 2°55.666 15.2849 0.093913 0.522206 -3.020363
2011-12-01 08:21:07 51°13.791 2°55.659 15.2773 0.093913 0.522215 -3.020363
2011-12-01 08:21:12 51°13.798 2°55.653 15.2868 0.093913 0.522215 -3.020363
2011-12-01 08:21:18 51°13.807 2°55.647 15.2822 0.093913 0.522215 -3.020363
2011-12-01 08:21:23 51°13.815 2°55.643 15.2888 0.093913 0.522225 -3.020363
2011-12-01 08:21:27 51°13.821 2°55.639 15.3035 0.093913 0.522225 -3.020363
2011-12-01 08:21:32 51°13.829 2°55.635 15.3439 0.093913 0.522234 -3.020363
2011-12-01 08:21:37 51°13.837 2°55.632 15.313 0.093913 0.522234 -3.020363
2011-12-01 08:21:43 51°13.847 2°55.63 15.3278 0.093913 0.522234 -3.020363
2011-12-01 08:21:47 51°13.853 2°55.629 15.3123 0.093913 0.522234 -3.020363
2011-12-01 08:21:52 51°13.861 2°55.627 15.2906 0.093913 0.522234 -3.020363
2011-12-01 08:21:57 51°13.87 2°55.627 15.3041 0.093913 0.522234 -3.020363
2011-12-01 08:22:02 51°13.878 2°55.626 15.3014 0.093913 0.522234 -3.020363
2011-12-01 08:22:07 51°13.886 2°55.627 15.2845 0.093913 0.522243 -3.020363
2011-12-01 08:22:12 51°13.894 2°55.628 15.3175 0.093913 0.522243 -3.020363
2011-12-01 08:22:17 51°13.902 2°55.629 15.3252 0.093913 0.522243 -3.020363
2011-12-01 08:22:22 51°13.909 2°55.631 15.3311 0.093913 0.522243 -3.020363
2011-12-01 08:22:27 51°13.916 2°55.634 15.3307 0.093913 0.522243 -3.020363
2011-12-01 08:22:32 51°13.923 2°55.636 15.3278 0.093913 0.522253 -3.020363
2011-12-01 08:22:38 51°13.93 2°55.64 15.3208 0.093913 0.522262 -3.020363
2011-12-01 08:22:42 51°13.935 2°55.642 15.322 0.093913 0.522262 -3.020363
2011-12-01 08:22:47 51°13.941 2°55.646 15.3351 0.093913 0.522272 -3.020363
2011-12-01 08:22:53 51°13.947 2°55.65 15.3552 0.093913 0.522272 -3.020363
2011-12-01 08:22:58 51°13.951 2°55.653 15.3618 0.093913 0.522272 -3.020363
2011-12-01 08:23:02 51°13.955 2°55.656 15.3557 0.093913 0.522281 -3.020363
2011-12-01 08:23:07 51°13.958 2°55.659 15.3487 0.093913 0.522272 -3.020363
2011-12-01 08:23:11 51°13.961 2°55.661 15.3439 0.093913 0.522272 -3.020363
2011-12-01 08:23:16 51°13.964 2°55.664 15.3401 0.093913 0.522272 -3.020363
2011-12-01 08:23:21 51°13.966 2°55.667 15.3365 0.093913 0.522272 -3.020363
2011-12-01 08:23:26 51°13.967 2°55.669 15.334 0.093913 0.522272 -3.020363
2011-12-01 08:23:31 51°13.968 2°55.671 15.3194 0.093913 0.522281 -3.020363
2011-12-01 08:23:36 51°13.969 2°55.671 15.3161 0.093913 0.522281 -3.020363
2011-12-01 08:23:42 51°13.97 2°55.672 15.3109 0.093913 0.52229 -3.020363
2011-12-01 08:23:47 51°13.971 2°55.671 15.3179 0.093913 0.52229 -3.020363
2011-12-01 08:23:52 51°13.971 2°55.67 15.3156 0.093913 0.5223 -3.020363
2011-12-01 08:23:57 51°13.971 2°55.668 15.306 0.093913 0.5223 -3.020363
2011-12-01 08:24:02 51°13.971 2°55.665 15.1685 0.093913 0.5223 -3.020363
2011-12-01 08:24:07 51°13.972 2°55.661 14.9804 0.093913 0.522309 -3.020363
2011-12-01 08:24:11 51°13.972 2°55.657 14.9137 0.093913 0.522319 -3.020363
2011-12-01 08:24:17 51°13.974 2°55.651 14.9923 0.093913 0.522328 -3.020363
2011-12-01 08:24:22 51°13.975 2°55.646 14.9848 0.093913 0.522337 -3.020363
2011-12-01 08:24:27 51°13.977 2°55.639 14.8172 0.093913 0.522337 -3.020363
2011-12-01 08:24:32 51°13.98 2°55.633 15.1273 0.093913 0.522337 -3.020363
2011-12-01 08:24:37 51°13.983 2°55.626 15.1142 0.093913 0.522347 -3.020363
2011-12-01 08:24:41 51°13.986 2°55.62 15.1069 0.093913 0.522347 -3.020363
2011-12-01 08:24:47 51°13.992 2°55.609 15.1039 0.093913 0.522347 -3.020363
2011-12-01 08:24:52 51°13.997 2°55.6 15.0925 0.093913 0.522347 -3.020363
2011-12-01 08:24:57 51°14.003 2°55.59 15.015 0.093913 0.522347 -3.020363
2011-12-01 08:25:02 51°14.009 2°55.58 15.0485 0.093913 0.522337 -3.020363
2011-12-01 08:25:07 51°14.016 2°55.569 15.0178 0.093913 0.522337 -3.020363
2011-12-01 08:25:11 51°14.022 2°55.56 14.9172 0.093913 0.522337 -3.020363
2011-12-01 08:25:16 51°14.03 2°55.549 14.8581 0.093913 0.522328 -3.020363
2011-12-01 08:25:21 51°14.039 2°55.538 14.7723 0.093913 0.522337 -3.020363
2011-12-01 08:25:26 51°14.048 2°55.527 14.7736 0.093913 0.522337 -3.020363
2011-12-01 08:25:31 51°14.057 2°55.515 14.8241 0.093913 0.522337 -3.020363
2011-12-01 08:25:35 51°14.065 2°55.506 14.8445 0.093913 0.522337 -3.020363
2011-12-01 08:25:40 51°14.075 2°55.496 14.8672 0.093913 0.522347 -3.020363
2011-12-01 08:25:45 51°14.085 2°55.484 14.8213 0.093913 0.522356 -3.020363
2011-12-01 08:25:50 51°14.094 2°55.473 14.838 0.093913 0.522356 -3.020363
2011-12-01 08:25:55 51°14.105 2°55.462 14.8181 0.093913 0.522356 -3.020363
2011-12-01 08:26:00 51°14.115 2°55.452 14.9344 0.093913 0.522366 -3.020363
2011-12-01 08:26:05 51°14.125 2°55.441 14.9311 0.093913 0.522366 -3.020363
2011-12-01 08:26:10 51°14.135 2°55.431 14.9654 0.093913 0.522366 -3.020363
2011-12-01 08:26:15 51°14.145 2°55.42 14.8987 0.093913 0.522366 -3.020363
2011-12-01 08:26:21 51°14.156 2°55.408 14.9549 0.093913 0.522375 -3.020363
2011-12-01 08:26:26 51°14.166 2°55.398 15.0403 0.093913 0.522375 -3.020363
2011-12-01 08:26:31 51°14.176 2°55.388 15.0674 0.093913 0.522375 -3.020363
2011-12-01 08:26:35 51°14.184 2°55.379 15.0089 0.093913 0.522375 -3.020363
2011-12-01 08:26:40 51°14.194 2°55.369 14.9739 0.093913 0.522375 -3.020363
2011-12-01 08:26:46 51°14.206 2°55.356 15.0093 0.093913 0.522375 -3.020363
2011-12-01 08:26:51 51°14.216 2°55.346 14.9849 0.093913 0.522375 -3.020363
2011-12-01 08:26:56 51°14.226 2°55.336 14.9912 0.093913 0.522375 -3.020363
2011-12-01 08:27:02 51°14.238 2°55.324 15.0473 0.093913 0.522384 -3.020363
2011-12-01 08:27:07 51°14.248 2°55.314 14.913 0.093913 0.522394 -3.020363
2011-12-01 08:27:12 51°14.258 2°55.304 15.1284 0.093913 0.522394 -3.020363
2011-12-01 08:27:17 51°14.268 2°55.294 15.0078 0.093913 0.522403 -3.020363
2011-12-01 08:27:22 51°14.278 2°55.284 15.0161 0.093913 0.522403 -3.020363
2011-12-01 08:27:27 51°14.289 2°55.274 15.005 0.093913 0.522403 -3.020363
2011-12-01 08:27:32 51°14.3 2°55.263 14.9928 0.093913 0.522403 -3.020363
2011-12-01 08:27:38 51°14.313 2°55.25 14.977 0.093913 0.522403 -3.020363
2011-12-01 08:27:43 51°14.324 2°55.24 14.9979 0.093913 0.522413 -3.020363
2011-12-01 08:27:47 51°14.333 2°55.232 15.0088 0.093913 0.52245 -3.020363
2011-12-01 08:27:52 51°14.344 2°55.221 14.9595 0.093913 0.522478 -3.020363
2011-12-01 08:27:58 51°14.358 2°55.208 14.9812 0.093913 0.522478 -3.020363
2011-12-01 08:28:03 51°14.37 2°55.197 15.0422 0.093913 0.522497 -3.020363
2011-12-01 08:28:07 51°14.38 2°55.188 15.009 0.093913 0.522488 -3.020363
2011-12-01 08:28:12 51°14.391 2°55.176 14.8024 0.093913 0.522478 -3.020363
2011-12-01 08:28:17 51°14.404 2°55.164 14.8926 0.093913 0.522431 -3.020363
2011-12-01 08:28:22 51°14.416 2°55.152 14.8959 0.093913 0.522403 -3.020363
2011-12-01 08:28:27 51°14.428 2°55.14 14.932 0.093913 0.522403 -3.020363
2011-12-01 08:28:32 51°14.441 2°55.127 14.9589 0.093913 0.522366 -3.020363
2011-12-01 08:28:37 51°14.453 2°55.115 14.8313 0.093913 0.522347 -3.020363
2011-12-01 08:28:42 51°14.466 2°55.101 14.7967 0.093913 0.522347 -3.020363
2011-12-01 08:28:47 51°14.478 2°55.089 14.8384 0.093913 0.522366 -3.020363
2011-12-01 08:28:51 51°14.489 2°55.078 14.8464 0.093913 0.522384 -3.020363
2011-12-01 08:28:56 51°14.502 2°55.065 14.7612 0.093913 0.522384 -3.020363
2011-12-01 08:29:01 51°14.515 2°55.051 14.8405 0.093913 0.522422 -3.020363
2011-12-01 08:29:06 51°14.529 2°55.037 14.7049 0.093913 0.52246 -3.020363
2011-12-01 08:29:11 51°14.542 2°55.023 14.6361 0.093913 0.522497 -3.020363
2011-12-01 08:29:15 51°14.553 2°55.012 14.7389 0.093913 0.522507 -3.020363
2011-12-01 08:29:20 51°14.567 2°54.998 14.8119 0.093913 0.522516 -3.020363
2011-12-01 08:29:25 51°14.581 2°54.984 14.7177 0.093913 0.522516 -3.020363
2011-12-01 08:29:30 51°14.595 2°54.97 14.8409 0.093913 0.522507 -3.020363
2011-12-01 08:29:35 51°14.61 2°54.956 14.7702 0.093913 0.522497 -3.020363
2011-12-01 08:29:39 51°14.621 2°54.944 14.6951 0.093913 0.522488 -3.020363
2011-12-01 08:29:44 51°14.635 2°54.93 14.767 0.093913 0.522478 -3.020363
2011-12-01 08:29:49 51°14.65 2°54.915 14.8044 0.093913 0.522469 -3.020363
2011-12-01 08:29:54 51°14.664 2°54.901 14.7697 0.093913 0.522469 -3.020363
2011-12-01 08:29:59 51°14.679 2°54.886 14.7764 0.093913 0.522478 -3.020363
2011-12-01 08:30:04 51°14.693 2°54.871 14.7986 0.093913 0.522478 -3.020363
2011-12-01 08:30:09 51°14.708 2°54.857 14.8292 0.093913 0.522478 -3.020363
2011-12-01 08:30:15 51°14.725 2°54.84 14.6955 0.093913 0.522497 -3.020363
2011-12-01 08:30:19 51°14.737 2°54.828 14.7985 0.093913 0.522507 -3.020363
2011-12-01 08:30:24 51°14.751 2°54.813 14.7792 0.093913 0.522507 -3.020363
2011-12-01 08:30:29 51°14.766 2°54.798 14.7108 0.093913 0.522516 -3.020363
2011-12-01 08:30:34 51°14.78 2°54.783 14.7704 0.093913 0.522516 -3.020363
2011-12-01 08:30:39 51°14.795 2°54.768 14.7167 0.093913 0.522535 -3.020363
2011-12-01 08:30:44 51°14.809 2°54.751 14.752 0.093913 0.522526 -3.020363
2011-12-01 08:30:49 51°14.823 2°54.736 14.7648 0.093913 0.522526 -3.020363
2011-12-01 08:30:54 51°14.837 2°54.72 14.7928 0.093913 0.522526 -3.020363
2011-12-01 08:30:59 51°14.851 2°54.704 14.7916 0.093913 0.522516 -3.020363
2011-12-01 08:31:04 51°14.865 2°54.687 14.7437 0.093913 0.522516 -3.020363
2011-12-01 08:31:09 51°14.879 2°54.672 14.7558 0.093913 0.522526 -3.020363
2011-12-01 08:31:14 51°14.893 2°54.655 14.6334 0.093913 0.522526 -3.020363
2011-12-01 08:31:19 51°14.906 2°54.637 14.6836 0.093913 0.522516 -3.020363
2011-12-01 08:31:24 51°14.919 2°54.62 14.7305 0.093913 0.522516 -3.020363
2011-12-01 08:31:29 51°14.933 2°54.602 14.7223 0.093913 0.522516 -3.020363
2011-12-01 08:31:34 51°14.946 2°54.585 14.7455 0.093913 0.522526 -3.020363
2011-12-01 08:31:39 51°14.959 2°54.567 14.721 0.093913 0.522526 -3.020363
2011-12-01 08:31:44 51°14.972 2°54.549 14.6881 0.093913 0.522535 -3.020363
2011-12-01 08:31:49 51°14.985 2°54.532 14.7239 0.093913 0.522535 -3.020363
2011-12-01 08:31:54 51°14.999 2°54.514 14.7035 0.093913 0.522535 -3.020363
2011-12-01 08:31:59 51°15.012 2°54.497 14.6814 0.093913 0.522544 -3.020363
2011-12-01 08:32:04 51°15.026 2°54.48 14.6924 0.093913 0.522544 -3.020363
2011-12-01 08:32:09 51°15.039 2°54.464 14.6783 0.093913 0.522554 -3.020363
2011-12-01 08:32:14 51°15.054 2°54.448 14.6685 0.093913 0.522563 -3.020363
2011-12-01 08:32:19 51°15.068 2°54.433 14.7405 0.093913 0.522563 -3.020363
2011-12-01 08:32:24 51°15.082 2°54.417 14.7549 0.093913 0.522563 -3.020363
2011-12-01 08:32:29 51°15.096 2°54.403 14.7493 0.093913 0.522573 -3.020363
2011-12-01 08:32:34 51°15.11 2°54.387 14.7712 0.093913 0.522573 -3.020363
2011-12-01 08:32:39 51°15.124 2°54.371 14.6917 0.093913 0.522582 -3.020363
2011-12-01 08:32:44 51°15.137 2°54.354 14.7138 0.093913 0.522582 -3.020363
2011-12-01 08:32:49 51°15.151 2°54.337 14.7423 0.093913 0.522573 -3.020363
2011-12-01 08:32:54 51°15.165 2°54.321 14.6632 0.093913 0.522573 -3.020363
2011-12-01 08:32:59 51°15.179 2°54.305 14.7152 0.093913 0.522573 -3.020363
2011-12-01 08:33:04 51°15.193 2°54.289 14.6591 0.093913 0.522582 -3.020363
2011-12-01 08:33:09 51°15.206 2°54.272 14.7055 0.093913 0.522573 -3.020363
2011-12-01 08:33:14 51°15.221 2°54.257 14.6969 0.093913 0.522573 -3.020363
2011-12-01 08:33:19 51°15.235 2°54.241 14.6681 0.093913 0.522582 -3.020363
2011-12-01 08:33:24 51°15.249 2°54.226 14.7213 0.093913 0.522582 -3.020363
2011-12-01 08:33:29 51°15.264 2°54.211 14.7452 0.093913 0.522591 -3.020363
2011-12-01 08:33:34 51°15.278 2°54.196 14.7727 0.093913 0.522601 -3.020363
2011-12-01 08:33:39 51°15.293 2°54.181 14.7448 0.093913 0.52261 -3.020363
2011-12-01 08:33:44 51°15.307 2°54.165 14.7227 0.093913 0.52262 -3.020363
2011-12-01 08:33:49 51°15.321 2°54.149 14.7139 0.093913 0.52262 -3.020363
2011-12-01 08:33:54 51°15.334 2°54.132 14.7351 0.093913 0.52262 -3.020363
2011-12-01 08:33:59 51°15.348 2°54.116 14.7426 0.093913 0.52262 -3.020363
2011-12-01 08:34:04 51°15.362 2°54.099 14.6839 0.093913 0.52262 -3.020363
2011-12-01 08:34:09 51°15.375 2°54.083 14.6896 0.093913 0.52262 -3.020363
2011-12-01 08:34:14 51°15.389 2°54.066 14.7044 0.093913 0.52262 -3.020363
2011-12-01 08:34:19 51°15.403 2°54.049 14.7318 0.093913 0.52262 -3.020363
2011-12-01 08:34:24 51°15.417 2°54.033 14.6999 0.093913 0.52262 -3.020363
2011-12-01 08:34:29 51°15.431 2°54.016 14.7166 0.093913 0.52262 -3.020363
2011-12-01 08:34:34 51°15.444 2°53.999 14.6909 0.093913 0.52262 -3.020363
2011-12-01 08:34:39 51°15.458 2°53.983 14.7364 0.093913 0.52262 -3.020363
2011-12-01 08:34:44 51°15.472 2°53.966 14.7429 0.093913 0.522629 -3.020363
2011-12-01 08:34:49 51°15.485 2°53.949 14.716 0.093913 0.522629 -3.020363
2011-12-01 08:34:54 51°15.499 2°53.933 14.7438 0.093913 0.522629 -3.020363
2011-12-01 08:34:59 51°15.513 2°53.916 14.7262 0.093913 0.522638 -3.020363
2011-12-01 08:35:04 51°15.527 2°53.899 14.7433 0.093913 0.522648 -3.020363
2011-12-01 08:35:09 51°15.54 2°53.882 14.7496 0.093913 0.522648 -3.020363
2011-12-01 08:35:14 51°15.553 2°53.865 14.713 0.093913 0.522648 -3.020363
2011-12-01 08:35:19 51°15.566 2°53.847 14.7272 0.093913 0.522648 -3.020363
2011-12-01 08:35:24 51°15.58 2°53.829 14.7472 0.093913 0.522648 -3.020363
2011-12-01 08:35:29 51°15.593 2°53.811 14.7646 0.093913 0.522657 -3.020363
2011-12-01 08:35:34 51°15.606 2°53.793 14.7121 0.093913 0.522667 -3.020363
2011-12-01 08:35:39 51°15.619 2°53.775 14.7304 0.093913 0.522667 -3.020363
2011-12-01 08:35:44 51°15.632 2°53.757 14.7634 0.093913 0.522667 -3.020363
2011-12-01 08:35:49 51°15.645 2°53.738 14.7272 0.093913 0.522676 -3.020363
2011-12-01 08:35:54 51°15.657 2°53.72 14.6763 0.093913 0.522676 -3.020363
2011-12-01 08:35:59 51°15.67 2°53.702 14.7162 0.093913 0.522667 -3.020363
2011-12-01 08:36:03 51°15.681 2°53.688 14.7124 0.093913 0.522676 -3.020363
2011-12-01 08:36:09 51°15.697 2°53.668 14.7203 0.093913 0.522676 -3.020363
2011-12-01 08:36:14 51°15.711 2°53.651 14.7229 0.093913 0.522676 -3.020363
2011-12-01 08:36:19 51°15.724 2°53.635 14.6934 0.09381 0.522081 -3.020363
2011-12-01 08:36:24 51°15.738 2°53.619 14.6757 0.09381 0.522081 -3.020363
2011-12-01 08:36:29 51°15.753 2°53.604 14.6798 0.093913 0.522676 -3.020363
2011-12-01 08:36:34 51°15.768 2°53.59 14.6779 0.093913 0.522686 -3.020363
2011-12-01 08:36:39 51°15.782 2°53.577 14.6851 0.093913 0.522695 -3.020363
2011-12-01 08:36:44 51°15.798 2°53.564 14.7356 0.093913 0.522704 -3.020363
2011-12-01 08:36:49 51°15.813 2°53.552 14.6957 0.093913 0.522704 -3.020363
2011-12-01 08:36:54 51°15.829 2°53.54 14.681 0.093913 0.522704 -3.020363
2011-12-01 08:36:59 51°15.844 2°53.529 14.7136 0.093913 0.522704 -3.020363
2011-12-01 08:37:04 51°15.86 2°53.518 14.7456 0.093913 0.522714 -3.020363
2011-12-01 08:37:09 51°15.876 2°53.508 14.72 0.093913 0.522714 -3.020363
2011-12-01 08:37:14 51°15.892 2°53.498 14.7322 0.093913 0.522714 -3.020363
2011-12-01 08:37:19 51°15.908 2°53.488 14.7253 0.093913 0.522714 -3.020363
2011-12-01 08:37:24 51°15.925 2°53.478 14.77 0.093913 0.522714 -3.020363
2011-12-01 08:37:29 51°15.941 2°53.469 14.7542 0.093913 0.522733 -3.020363
2011-12-01 08:37:34 51°15.957 2°53.459 14.7406 0.093913 0.522723 -3.020363
2011-12-01 08:37:39 51°15.973 2°53.45 14.769 0.093913 0.522733 -3.020363
2011-12-01 08:37:44 51°15.989 2°53.44 14.7448 0.09381 0.522138 -3.020363
2011-12-01 08:37:49 51°16.005 2°53.429 14.7315 0.093913 0.522733 -3.020363
2011-12-01 08:37:54 51°16.021 2°53.419 14.7422 0.093913 0.522733 -3.020363
2011-12-01 08:37:59 51°16.036 2°53.408 14.7374 0.093913 0.522733 -3.020363
2011-12-01 08:38:04 51°16.052 2°53.397 14.727 0.09381 0.522147 -3.020363
2011-12-01 08:38:09 51°16.068 2°53.386 14.7487 0.09381 0.522147 -3.020363
2011-12-01 08:38:14 51°16.084 2°53.374 14.7599 0.093913 0.522742 -3.020363
2011-12-01 08:38:19 51°16.099 2°53.362 14.7283 0.093913 0.522751 -3.020363
2011-12-01 08:38:23 51°16.112 2°53.352 14.7452 0.093913 0.522751 -3.020363
2011-12-01 08:38:29 51°16.131 2°53.339 14.7287 0.093913 0.522761 -3.020363
2011-12-01 08:38:34 51°16.146 2°53.327 14.7181 0.09381 0.522166 -3.020363
2011-12-01 08:38:39 51°16.162 2°53.315 14.7324 0.09381 0.522166 -3.020363
2011-12-01 08:38:44 51°16.178 2°53.304 14.7307 0.093913 0.522761 -3.020363
2011-12-01 08:38:49 51°16.194 2°53.293 14.7272 0.09381 0.522176 -3.020363
2011-12-01 08:38:54 51°16.21 2°53.283 14.7408 0.09381 0.522176 -3.020363
2011-12-01 08:38:59 51°16.226 2°53.273 14.7553 0.093913 0.52277 -3.020363
2011-12-01 08:39:04 51°16.242 2°53.262 14.7167 0.093913 0.52278 -3.020363
2011-12-01 08:39:09 51°16.258 2°53.252 14.7464 0.093913 0.522789 -3.020363
2011-12-01 08:39:14 51°16.274 2°53.241 14.7197 0.09381 0.522194 -3.020363
2011-12-01 08:39:19 51°16.289 2°53.231 14.7464 0.093913 0.522789 -3.020363
2011-12-01 08:39:24 51°16.305 2°53.221 14.7486 0.093913 0.522789 -3.020363
2011-12-01 08:39:29 51°16.321 2°53.21 14.7635 0.093913 0.522799 -3.020363
2011-12-01 08:39:34 51°16.337 2°53.199 14.7331 0.09381 0.522204 -3.020363
2011-12-01 08:39:39 51°16.353 2°53.188 14.7665 0.09381 0.522204 -3.020363
2011-12-01 08:39:44 51°16.369 2°53.177 14.757 0.09381 0.522204 -3.020363
2011-12-01 08:39:49 51°16.385 2°53.165 14.7662 0.09381 0.522204 -3.020363
2011-12-01 08:39:54 51°16.4 2°53.153 14.7561 0.09381 0.522204 -3.020363
2011-12-01 08:39:59 51°16.416 2°53.142 14.7268 0.09381 0.522213 -3.020363
2011-12-01 08:40:04 51°16.432 2°53.13 14.7541 0.09381 0.522204 -3.020363
2011-12-01 08:40:09 51°16.448 2°53.119 14.7691 0.09381 0.522213 -3.020363
2011-12-01 08:40:14 51°16.463 2°53.107 14.743 0.093913 0.522817 -3.020363
2011-12-01 08:40:19 51°16.479 2°53.095 14.7518 0.093913 0.522817 -3.020363
2011-12-01 08:40:24 51°16.495 2°53.084 14.7433 0.093913 0.522817 -3.020363
2011-12-01 08:40:29 51°16.511 2°53.072 14.7517 0.09381 0.522223 -3.020363
2011-12-01 08:40:34 51°16.526 2°53.06 14.7553 0.09381 0.522232 -3.020363
2011-12-01 08:40:39 51°16.542 2°53.049 14.7513 0.09381 0.522241 -3.020363
2011-12-01 08:40:44 51°16.558 2°53.036 14.7751 0.093913 0.522836 -3.020363
2011-12-01 08:40:49 51°16.573 2°53.023 14.7717 0.093913 0.522836 -3.020363
2011-12-01 08:40:54 51°16.588 2°53.01 14.765 0.093913 0.522836 -3.020363
2011-12-01 08:40:59 51°16.604 2°52.998 14.762 0.09381 0.522241 -3.020363
2011-12-01 08:41:04 51°16.619 2°52.985 14.7589 0.09381 0.522241 -3.020363
2011-12-01 08:41:09 51°16.635 2°52.974 14.7648 0.09381 0.522241 -3.020363
2011-12-01 08:41:14 51°16.65 2°52.962 14.7558 0.09381 0.522232 -3.020363
2011-12-01 08:41:19 51°16.666 2°52.951 14.774 0.09381 0.522241 -3.020363
2011-12-01 08:41:24 51°16.682 2°52.94 14.761 0.09381 0.522241 -3.020363
2011-12-01 08:41:29 51°16.698 2°52.93 14.7406 0.09381 0.522241 -3.020363
2011-12-01 08:41:35 51°16.717 2°52.916 14.7663 0.093913 0.522846 -3.020363
2011-12-01 08:41:39 51°16.73 2°52.908 14.7582 0.09381 0.522251 -3.020363
2011-12-01 08:41:44 51°16.746 2°52.898 14.7442 0.09381 0.52226 -3.020363
2011-12-01 08:41:49 51°16.762 2°52.888 14.7646 0.09381 0.52227 -3.020363
2011-12-01 08:41:54 51°16.778 2°52.877 14.789 0.09381 0.52227 -3.020363
2011-12-01 08:41:59 51°16.794 2°52.867 14.7865 0.09381 0.522279 -3.020363
2011-12-01 08:42:04 51°16.809 2°52.856 14.7848 0.09381 0.522279 -3.020363
2011-12-01 08:42:09 51°16.825 2°52.846 14.7887 0.09381 0.522279 -3.020363
2011-12-01 08:42:14 51°16.841 2°52.835 14.7472 0.09381 0.52227 -3.020363
2011-12-01 08:42:19 51°16.857 2°52.824 14.7771 0.09381 0.52227 -3.020363
2011-12-01 08:42:24 51°16.873 2°52.814 14.7771 0.09381 0.52227 -3.020363
2011-12-01 08:42:29 51°16.889 2°52.804 14.774 0.09381 0.52227 -3.020363
2011-12-01 08:42:34 51°16.905 2°52.794 14.758 0.09381 0.52227 -3.020363
2011-12-01 08:42:39 51°16.92 2°52.783 14.8115 0.09381 0.522279 -3.020363
2011-12-01 08:42:43 51°16.933 2°52.775 14.7926 0.09381 0.522288 -3.020363
2011-12-01 08:42:49 51°16.952 2°52.762 14.7967 0.09381 0.522288 -3.020363
2011-12-01 08:42:54 51°16.968 2°52.75 14.804 0.09381 0.522288 -3.020363
2011-12-01 08:42:59 51°16.983 2°52.738 14.7892 0.09381 0.522288 -3.020363
2011-12-01 08:43:04 51°16.999 2°52.727 14.7666 0.09381 0.522298 -3.020363
2011-12-01 08:43:09 51°17.015 2°52.715 14.7886 0.09381 0.522298 -3.020363
2011-12-01 08:43:14 51°17.031 2°52.704 14.7758 0.09381 0.522298 -3.020363
2011-12-01 08:43:19 51°17.047 2°52.693 14.8028 0.09381 0.522288 -3.020363
2011-12-01 08:43:24 51°17.063 2°52.683 14.7785 0.09381 0.522288 -3.020363
2011-12-01 08:43:29 51°17.079 2°52.673 14.7903 0.09381 0.522298 -3.020363
2011-12-01 08:43:35 51°17.099 2°52.661 14.7916 0.09381 0.522298 -3.020363
2011-12-01 08:43:39 51°17.112 2°52.654 14.7768 0.09381 0.522298 -3.020363
2011-12-01 08:43:44 51°17.128 2°52.645 14.7898 0.09381 0.522298 -3.020363
2011-12-01 08:43:49 51°17.145 2°52.636 14.8028 0.09381 0.522298 -3.020363
2011-12-01 08:43:54 51°17.161 2°52.628 14.7998 0.09381 0.522298 -3.020363
2011-12-01 08:43:59 51°17.178 2°52.62 14.8141 0.09381 0.522307 -3.020363
2011-12-01 08:44:04 51°17.194 2°52.611 14.801 0.09381 0.522307 -3.020363
2011-12-01 08:44:09 51°17.211 2°52.603 14.7913 0.09381 0.522307 -3.020363
2011-12-01 08:44:14 51°17.228 2°52.595 14.8008 0.09381 0.522307 -3.020363
2011-12-01 08:44:19 51°17.245 2°52.587 14.8156 0.09381 0.522317 -3.020363
2011-12-01 08:44:24 51°17.261 2°52.579 14.7994 0.09381 0.522317 -3.020363
2011-12-01 08:44:29 51°17.278 2°52.571 14.81 0.09381 0.522326 -3.020363
2011-12-01 08:44:34 51°17.294 2°52.563 14.8065 0.09381 0.522326 -3.020363
2011-12-01 08:44:39 51°17.311 2°52.554 14.8091 0.09381 0.522336 -3.020363
2011-12-01 08:44:44 51°17.327 2°52.545 14.8466 0.09381 0.522345 -3.020363
2011-12-01 08:44:49 51°17.343 2°52.534 14.8164 0.09381 0.522345 -3.020363
2011-12-01 08:44:54 51°17.359 2°52.524 14.8044 0.09381 0.522345 -3.020363
2011-12-01 08:44:59 51°17.375 2°52.514 14.8157 0.09381 0.522336 -3.020363
2011-12-01 08:45:04 51°17.391 2°52.503 14.802 0.09381 0.522336 -3.020363
2011-12-01 08:45:09 51°17.406 2°52.491 14.8204 0.09381 0.522326 -3.020363
2011-12-01 08:45:14 51°17.422 2°52.482 14.8043 0.09381 0.522336 -3.020363
2011-12-01 08:45:19 51°17.439 2°52.473 14.7956 0.09381 0.522326 -3.020363
2011-12-01 08:45:24 51°17.456 2°52.464 14.8206 0.09381 0.522326 -3.020363
2011-12-01 08:45:29 51°17.472 2°52.457 14.8114 0.09381 0.522336 -3.020363
2011-12-01 08:45:34 51°17.489 2°52.45 14.8065 0.09381 0.522326 -3.020363
2011-12-01 08:45:39 51°17.506 2°52.444 14.8242 0.09381 0.522336 -3.020363
2011-12-01 08:45:44 51°17.523 2°52.438 14.8145 0.09381 0.522336 -3.020363
2011-12-01 08:45:49 51°17.539 2°52.435 14.8172 0.09381 0.522354 -3.020363
2011-12-01 08:45:54 51°17.557 2°52.43 14.8369 0.09381 0.522354 -3.020363
2011-12-01 08:45:59 51°17.574 2°52.427 14.8201 0.09381 0.522354 -3.020363
2011-12-01 08:46:04 51°17.591 2°52.423 14.8336 0.09381 0.522354 -3.020363
2011-12-01 08:46:09 51°17.608 2°52.42 14.806 0.09381 0.522373 -3.020363
2011-12-01 08:46:14 51°17.625 2°52.417 14.8214 0.09381 0.522354 -3.020363
2011-12-01 08:46:19 51°17.643 2°52.415 14.8269 0.09381 0.522345 -3.020363
2011-12-01 08:46:24 51°17.66 2°52.414 14.8207 0.09381 0.522345 -3.020363
2011-12-01 08:46:29 51°17.677 2°52.414 14.8362 0.09381 0.522345 -3.020363
2011-12-01 08:46:34 51°17.695 2°52.414 14.8397 0.09381 0.522345 -3.020363
2011-12-01 08:46:39 51°17.712 2°52.414 14.8403 0.09381 0.522345 -3.020363
2011-12-01 08:46:44 51°17.729 2°52.416 14.8459 0.09381 0.522354 -3.020363
2011-12-01 08:46:49 51°17.747 2°52.417 14.8289 0.09381 0.522354 -3.020363
2011-12-01 08:46:54 51°17.764 2°52.419 14.8317 0.09381 0.522354 -3.020363
2011-12-01 08:46:59 51°17.782 2°52.42 14.8373 0.09381 0.522364 -3.020363
2011-12-01 08:47:04 51°17.799 2°52.423 14.8412 0.09381 0.522373 -3.020363
2011-12-01 08:47:09 51°17.816 2°52.424 14.8417 0.09381 0.522383 -3.020363
2011-12-01 08:47:14 51°17.834 2°52.426 14.8361 0.09381 0.522392 -3.020363
2011-12-01 08:47:19 51°17.851 2°52.428 14.851 0.09381 0.522392 -3.020363
2011-12-01 08:47:23 51°17.865 2°52.43 14.8367 0.09381 0.522392 -3.020363
2011-12-01 08:47:29 51°17.886 2°52.431 14.8446 0.09381 0.522392 -3.020363
2011-12-01 08:47:34 51°17.903 2°52.434 14.8322 0.09381 0.522392 -3.020363
2011-12-01 08:47:39 51°17.921 2°52.437 14.8605 0.09381 0.522383 -3.020363
2011-12-01 08:47:44 51°17.938 2°52.442 14.8348 0.09381 0.522392 -3.020363
2011-12-01 08:47:49 51°17.955 2°52.446 14.8342 0.09381 0.522373 -3.020363
2011-12-01 08:47:54 51°17.972 2°52.452 14.8473 0.09381 0.522373 -3.020363
2011-12-01 08:47:59 51°17.989 2°52.458 14.8203 0.09381 0.522392 -3.020363
2011-12-01 08:48:04 51°18.006 2°52.464 14.8474 0.09381 0.522364 -3.020363
2011-12-01 08:48:09 51°18.022 2°52.473 14.8607 0.09381 0.522383 -3.020363
2011-12-01 08:48:14 51°18.039 2°52.483 14.8412 0.09381 0.522401 -3.020363
2011-12-01 08:48:19 51°18.056 2°52.49 14.8566 0.09381 0.522373 -3.020363
2011-12-01 08:48:24 51°18.072 2°52.5 14.86 0.09381 0.522373 -3.020363
2011-12-01 08:48:29 51°18.088 2°52.508 14.864 0.09381 0.522392 -3.020363
2011-12-01 08:48:34 51°18.105 2°52.52 14.8452 0.09381 0.522401 -3.020363
2011-12-01 08:48:39 51°18.121 2°52.528 14.8722 0.09381 0.522383 -3.020363
2011-12-01 08:48:44 51°18.137 2°52.539 14.8766 0.09381 0.522411 -3.020363
2011-12-01 08:48:49 51°18.153 2°52.549 14.8507 0.09381 0.522411 -3.020363
2011-12-01 08:48:54 51°18.17 2°52.559 14.8628 0.09381 0.522411 -3.020363
2011-12-01 08:48:59 51°18.186 2°52.568 14.9007 0.09381 0.522383 -3.020363
2011-12-01 08:49:04 51°18.201 2°52.579 14.8656 0.09381 0.522401 -3.020363
2011-12-01 08:49:09 51°18.218 2°52.589 14.862 0.09381 0.522401 -3.020363
2011-12-01 08:49:14 51°18.234 2°52.598 14.8661 0.09381 0.522392 -3.020363
2011-12-01 08:49:19 51°18.25 2°52.61 14.8668 0.09381 0.522383 -3.020363
2011-12-01 08:49:24 51°18.266 2°52.622 14.8566 0.09381 0.522383 -3.020363
2011-12-01 08:49:29 51°18.28 2°52.636 14.8744 0.09381 0.522373 -3.020363
2011-12-01 08:49:34 51°18.293 2°52.654 14.8707 0.09381 0.522392 -3.020363
2011-12-01 08:49:39 51°18.307 2°52.67 14.8643 0.09381 0.522401 -3.020363
2011-12-01 08:49:43 51°18.318 2°52.685 14.8851 0.09381 0.522392 -3.020363
2011-12-01 08:49:49 51°18.332 2°52.707 14.8811 0.09381 0.522411 -3.020363
2011-12-01 08:49:54 51°18.344 2°52.725 14.8849 0.09381 0.522411 -3.020363
2011-12-01 08:49:59 51°18.356 2°52.746 14.8688 0.09381 0.52243 -3.020363
2011-12-01 08:50:04 51°18.368 2°52.764 14.896 0.09381 0.522411 -3.020363
2011-12-01 08:50:09 51°18.378 2°52.786 14.8799 0.09381 0.522439 -3.020363
2011-12-01 08:50:14 51°18.391 2°52.805 14.886 0.09381 0.52242 -3.020363
2011-12-01 08:50:19 51°18.402 2°52.827 14.9012 0.09381 0.522439 -3.020363
2011-12-01 08:50:24 51°18.412 2°52.848 14.8779 0.09381 0.522439 -3.020363
2011-12-01 08:50:29 51°18.423 2°52.868 14.9132 0.09381 0.52242 -3.020363
2011-12-01 08:50:35 51°18.436 2°52.894 14.883 0.09381 0.52242 -3.020363
2011-12-01 08:50:39 51°18.445 2°52.911 14.9169 0.09381 0.522411 -3.020363
2011-12-01 08:50:44 51°18.455 2°52.934 14.8979 0.09381 0.52242 -3.020363
2011-12-01 08:50:49 51°18.466 2°52.954 14.9076 0.09381 0.522411 -3.020363
2011-12-01 08:50:54 51°18.476 2°52.976 14.8947 0.09381 0.522411 -3.020363
2011-12-01 08:50:59 51°18.488 2°52.997 14.9038 0.09381 0.522411 -3.020363
2011-12-01 08:51:04 51°18.498 2°53.019 14.8976 0.09381 0.52242 -3.020363
2011-12-01 08:51:09 51°18.508 2°53.041 14.894 0.09381 0.522411 -3.020363
2011-12-01 08:51:14 51°18.518 2°53.064 14.9464 0.09381 0.522439 -3.020363
2011-12-01 08:51:19 51°18.528 2°53.087 14.895 0.09381 0.522449 -3.020363
2011-12-01 08:51:24 51°18.538 2°53.109 14.9112 0.09381 0.522449 -3.020363
2011-12-01 08:51:29 51°18.548 2°53.13 14.9339 0.09381 0.52243 -3.020363
2011-12-01 08:51:34 51°18.557 2°53.153 14.8965 0.09381 0.522467 -3.020363
2011-12-01 08:51:39 51°18.568 2°53.174 14.9381 0.09381 0.522439 -3.020363
2011-12-01 08:51:44 51°18.577 2°53.198 14.8996 0.09381 0.522449 -3.020363
2011-12-01 08:51:49 51°18.589 2°53.219 14.9377 0.09381 0.522345 -3.020363
2011-12-01 08:51:54 51°18.598 2°53.242 14.9268 0.09381 0.522345 -3.020363
2011-12-01 08:51:59 51°18.609 2°53.263 14.9184 0.09381 0.522288 -3.020363
2011-12-01 08:52:04 51°18.618 2°53.286 14.9519 0.09381 0.522194 -3.020363
2011-12-01 08:52:09 51°18.628 2°53.309 14.922 0.09381 0.522204 -3.020363
2011-12-01 08:52:14 51°18.639 2°53.331 14.9323 0.09381 0.522194 -3.020363
2011-12-01 08:52:19 51°18.649 2°53.353 14.9353 0.09381 0.522232 -3.020363
2011-12-01 08:52:24 51°18.659 2°53.375 14.9243 0.09381 0.522232 -3.020363
2011-12-01 08:52:29 51°18.669 2°53.397 14.934 0.09381 0.52226 -3.020363
2011-12-01 08:52:35 51°18.681 2°53.423 14.9504 0.09381 0.522307 -3.020363
2011-12-01 08:52:39 51°18.688 2°53.442 14.9278 0.09381 0.522364 -3.020363
2011-12-01 08:52:44 51°18.699 2°53.463 14.9561 0.09381 0.522392 -3.020363
2011-12-01 08:52:49 51°18.708 2°53.487 14.9371 0.09381 0.522486 -3.020363
2011-12-01 08:52:54 51°18.72 2°53.506 14.9305 0.09381 0.522486 -3.020363
2011-12-01 08:52:59 51°18.728 2°53.529 14.9442 0.09381 0.522477 -3.020363
2011-12-01 08:53:04 51°18.739 2°53.552 14.9364 0.09381 0.522524 -3.020363
2011-12-01 08:53:09 51°18.748 2°53.575 14.9745 0.09381 0.522552 -3.020363
2011-12-01 08:53:14 51°18.756 2°53.599 14.9447 0.09381 0.52258 -3.020363
2011-12-01 08:53:19 51°18.765 2°53.621 14.962 0.09381 0.522571 -3.020363
2011-12-01 08:53:24 51°18.772 2°53.645 14.961 0.09381 0.522571 -3.020363
2011-12-01 08:53:29 51°18.78 2°53.669 14.9528 0.09381 0.52258 -3.020363
2011-12-01 08:53:34 51°18.787 2°53.694 14.9531 0.09381 0.522524 -3.020363
2011-12-01 08:53:39 51°18.794 2°53.717 14.9842 0.09381 0.522467 -3.020363
2011-12-01 08:53:44 51°18.799 2°53.742 14.9631 0.09381 0.52243 -3.020363
2011-12-01 08:53:49 51°18.807 2°53.766 14.9655 0.09381 0.522364 -3.020363
2011-12-01 08:53:54 51°18.813 2°53.791 14.9729 0.09381 0.522364 -3.020363
2011-12-01 08:53:59 51°18.819 2°53.816 14.979 0.09381 0.522345 -3.020363
2011-12-01 08:54:03 51°18.823 2°53.837 14.963 0.09381 0.522373 -3.020363
2011-12-01 08:54:09 51°18.832 2°53.865 14.9877 0.09381 0.522373 -3.020363
2011-12-01 08:54:14 51°18.837 2°53.89 14.9797 0.09381 0.522449 -3.020363
2011-12-01 08:54:19 51°18.844 2°53.915 14.9855 0.09381 0.522496 -3.020363
2011-12-01 08:54:24 51°18.849 2°53.94 14.976 0.09381 0.522496 -3.020363
2011-12-01 08:54:29 51°18.857 2°53.965 14.9829 0.09381 0.522552 -3.020363
2011-12-01 08:54:34 51°18.862 2°53.99 14.9791 0.09381 0.522599 -3.020363
2011-12-01 08:54:39 51°18.869 2°54.015 14.9879 0.09381 0.522618 -3.020363
2011-12-01 08:54:44 51°18.874 2°54.04 14.9804 0.09381 0.522646 -3.020363
2011-12-01 08:54:49 51°18.881 2°54.065 14.9897 0.09381 0.522609 -3.020363
2011-12-01 08:54:54 51°18.886 2°54.091 14.9955 0.09381 0.522609 -3.020363
2011-12-01 08:54:59 51°18.892 2°54.116 14.9951 0.09381 0.52259 -3.020363
2011-12-01 08:55:04 51°18.897 2°54.142 14.9854 0.09381 0.52259 -3.020363
2011-12-01 08:55:09 51°18.904 2°54.167 14.9904 0.09381 0.522533 -3.020363
2011-12-01 08:55:14 51°18.909 2°54.193 15.0028 0.09381 0.522524 -3.020363
2011-12-01 08:55:19 51°18.915 2°54.218 14.9947 0.09381 0.522515 -3.020363
2011-12-01 08:55:24 51°18.921 2°54.244 15.0004 0.09381 0.522515 -3.020363
2011-12-01 08:55:29 51°18.927 2°54.27 14.9959 0.09381 0.522505 -3.020363
2011-12-01 08:55:34 51°18.933 2°54.295 14.9952 0.09381 0.522496 -3.020363
2011-12-01 08:55:39 51°18.939 2°54.321 15.0135 0.09381 0.522496 -3.020363
2011-12-01 08:55:44 51°18.944 2°54.346 15.0108 0.09381 0.522505 -3.020363
2011-12-01 08:55:49 51°18.95 2°54.372 14.9995 0.09381 0.522524 -3.020363
2011-12-01 08:55:54 51°18.957 2°54.397 15.0062 0.09381 0.522524 -3.020363
2011-12-01 08:55:59 51°18.962 2°54.423 15.0095 0.09381 0.522515 -3.020363
2011-12-01 08:56:04 51°18.968 2°54.448 15.015 0.09381 0.522533 -3.020363
2011-12-01 08:56:09 51°18.974 2°54.473 15.0063 0.09381 0.522543 -3.020363
2011-12-01 08:56:14 51°18.98 2°54.498 15.017 0.09381 0.522543 -3.020363
2011-12-01 08:56:19 51°18.986 2°54.524 15.022 0.09381 0.522543 -3.020363
2011-12-01 08:56:24 51°18.993 2°54.549 15.0198 0.09381 0.522543 -3.020363
2011-12-01 08:56:29 51°19 2°54.573 15.0257 0.09381 0.522533 -3.020363
2011-12-01 08:56:34 51°19.006 2°54.598 15.0086 0.09381 0.522552 -3.020363
2011-12-01 08:56:39 51°19.014 2°54.622 15.016 0.09381 0.522524 -3.020363
2011-12-01 08:56:44 51°19.021 2°54.647 15.0351 0.09381 0.522533 -3.020363
2011-12-01 08:56:49 51°19.028 2°54.672 15.0134 0.09381 0.522524 -3.020363
2011-12-01 08:56:54 51°19.035 2°54.697 15.0271 0.09381 0.522524 -3.020363
2011-12-01 08:56:59 51°19.042 2°54.722 15.048 0.09381 0.522515 -3.020363
2011-12-01 08:57:04 51°19.049 2°54.746 15.0246 0.09381 0.522533 -3.020363
2011-12-01 08:57:09 51°19.057 2°54.771 15.0349 0.09381 0.522533 -3.020363
2011-12-01 08:57:14 51°19.064 2°54.795 15.0301 0.09381 0.522533 -3.020363
2011-12-01 08:57:19 51°19.071 2°54.82 15.0368 0.09381 0.522533 -3.020363
2011-12-01 08:57:24 51°19.078 2°54.845 15.0395 0.09381 0.522533 -3.020363
2011-12-01 08:57:29 51°19.085 2°54.87 15.0396 0.09381 0.522543 -3.020363
2011-12-01 08:57:34 51°19.092 2°54.895 15.0349 0.09381 0.522543 -3.020363
2011-12-01 08:57:39 51°19.099 2°54.92 15.0409 0.09381 0.522552 -3.020363
2011-12-01 08:57:44 51°19.105 2°54.945 15.037 0.09381 0.522543 -3.020363
2011-12-01 08:57:49 51°19.112 2°54.97 15.0554 0.09381 0.522543 -3.020363
2011-12-01 08:57:54 51°19.118 2°54.996 15.0446 0.09381 0.522543 -3.020363
2011-12-01 08:57:59 51°19.125 2°55.021 15.038 0.09381 0.522562 -3.020363
2011-12-01 08:58:04 51°19.133 2°55.045 15.0655 0.09381 0.522533 -3.020363
2011-12-01 08:58:09 51°19.138 2°55.07 15.0557 0.09381 0.522562 -3.020363
2011-12-01 08:58:14 51°19.146 2°55.095 15.0366 0.09381 0.522543 -3.020363
2011-12-01 08:58:19 51°19.152 2°55.12 15.0475 0.09381 0.522552 -3.020363
2011-12-01 08:58:24 51°19.159 2°55.144 15.0507 0.09381 0.522552 -3.020363
2011-12-01 08:58:29 51°19.165 2°55.17 15.0557 0.09381 0.522552 -3.020363
2011-12-01 08:58:34 51°19.172 2°55.195 15.0649 0.09381 0.522543 -3.020363
2011-12-01 08:58:39 51°19.178 2°55.22 15.059 0.09381 0.522543 -3.020363
2011-12-01 08:58:44 51°19.185 2°55.244 15.0739 0.09381 0.522552 -3.020363
2011-12-01 08:58:49 51°19.191 2°55.27 15.0503 0.09381 0.522552 -3.020363
2011-12-01 08:58:54 51°19.199 2°55.294 15.0749 0.09381 0.522552 -3.020363
2011-12-01 08:58:59 51°19.204 2°55.319 15.0606 0.09381 0.522552 -3.020363
2011-12-01 08:59:04 51°19.211 2°55.343 15.0703 0.09381 0.522562 -3.020363
2011-12-01 08:59:09 51°19.217 2°55.369 15.0702 0.09381 0.522562 -3.020363
2011-12-01 08:59:14 51°19.223 2°55.393 15.0744 0.09381 0.522562 -3.020363
2011-12-01 08:59:19 51°19.23 2°55.418 15.07 0.09381 0.522562 -3.020363
2011-12-01 08:59:24 51°19.236 2°55.443 15.0736 0.09381 0.522562 -3.020363
2011-12-01 08:59:29 51°19.243 2°55.468 15.0805 0.09381 0.522562 -3.020363
2011-12-01 08:59:34 51°19.249 2°55.493 15.07 0.09381 0.522562 -3.020363
2011-12-01 08:59:39 51°19.257 2°55.517 15.0756 0.09381 0.522562 -3.020363
2011-12-01 08:59:44 51°19.263 2°55.542 15.0753 0.09381 0.522571 -3.020363
2011-12-01 08:59:49 51°19.271 2°55.567 15.0924 0.09381 0.522552 -3.020363
2011-12-01 08:59:54 51°19.277 2°55.592 15.0923 0.09381 0.522552 -3.020363
2011-12-01 08:59:59 51°19.284 2°55.616 15.0713 0.09381 0.522571 -3.020363
2011-12-01 09:00:04 51°19.292 2°55.641 15.0802 0.09381 0.522571 -3.020363
2011-12-01 09:00:09 51°19.299 2°55.666 15.0998 0.09381 0.522562 -3.020363
2011-12-01 09:00:14 51°19.306 2°55.69 15.087 0.09381 0.522562 -3.020363
2011-12-01 09:00:19 51°19.314 2°55.715 15.0826 0.09381 0.522571 -3.020363
2011-12-01 09:00:24 51°19.322 2°55.739 15.0814 0.09381 0.522571 -3.020363
2011-12-01 09:00:29 51°19.329 2°55.762 15.1039 0.09381 0.522552 -3.020363
2011-12-01 09:00:34 51°19.336 2°55.787 15.0807 0.09381 0.52258 -3.020363
2011-12-01 09:00:39 51°19.344 2°55.811 15.0906 0.09381 0.522562 -3.020363
2011-12-01 09:00:44 51°19.35 2°55.836 15.1039 0.09381 0.522562 -3.020363
2011-12-01 09:00:49 51°19.356 2°55.861 15.0905 0.09381 0.522562 -3.020363
2011-12-01 09:00:54 51°19.363 2°55.886 15.1046 0.09381 0.522562 -3.020363
2011-12-01 09:00:59 51°19.37 2°55.911 15.0876 0.09381 0.52258 -3.020363
2011-12-01 09:01:04 51°19.377 2°55.935 15.1258 0.09381 0.522543 -3.020363
2011-12-01 09:01:09 51°19.382 2°55.96 15.1183 0.09381 0.52259 -3.020363
2011-12-01 09:01:14 51°19.389 2°55.986 15.1038 0.09381 0.522571 -3.020363
2011-12-01 09:01:19 51°19.397 2°56.011 15.1225 0.09381 0.522562 -3.020363
2011-12-01 09:01:24 51°19.403 2°56.035 15.1087 0.09381 0.522562 -3.020363
2011-12-01 09:01:29 51°19.41 2°56.06 15.1215 0.09381 0.522562 -3.020363
2011-12-01 09:01:35 51°19.419 2°56.089 15.0958 0.09381 0.522571 -3.020363
2011-12-01 09:01:39 51°19.426 2°56.108 15.1261 0.09381 0.522543 -3.020363
2011-12-01 09:01:44 51°19.432 2°56.133 15.1091 0.09381 0.522571 -3.020363
2011-12-01 09:01:49 51°19.44 2°56.156 15.1176 0.09381 0.522552 -3.020363
2011-12-01 09:01:54 51°19.446 2°56.181 15.1189 0.09381 0.522552 -3.020363
2011-12-01 09:01:59 51°19.455 2°56.204 15.1084 0.09381 0.522571 -3.020363
2011-12-01 09:02:04 51°19.462 2°56.229 15.124 0.09381 0.522552 -3.020363
2011-12-01 09:02:09 51°19.469 2°56.252 15.1226 0.09381 0.522562 -3.020363
2011-12-01 09:02:14 51°19.475 2°56.277 15.1282 0.09381 0.522562 -3.020363
2011-12-01 09:02:19 51°19.481 2°56.303 15.1253 0.09381 0.522562 -3.020363
2011-12-01 09:02:24 51°19.488 2°56.327 15.1338 0.09381 0.522562 -3.020363
2011-12-01 09:02:29 51°19.494 2°56.352 15.125 0.09381 0.522571 -3.020363
2011-12-01 09:02:34 51°19.501 2°56.378 15.1175 0.09381 0.52258 -3.020363
2011-12-01 09:02:39 51°19.508 2°56.402 15.1457 0.09381 0.522552 -3.020363
2011-12-01 09:02:44 51°19.513 2°56.426 15.1378 0.09381 0.52258 -3.020363
2011-12-01 09:02:49 51°19.52 2°56.452 15.1333 0.09381 0.522571 -3.020363
2011-12-01 09:02:54 51°19.526 2°56.477 15.1307 0.09381 0.522571 -3.020363
2011-12-01 09:02:59 51°19.533 2°56.501 15.1446 0.09381 0.522562 -3.020363
2011-12-01 09:03:04 51°19.539 2°56.527 15.128 0.09381 0.52258 -3.020363
2011-12-01 09:03:09 51°19.547 2°56.552 15.1336 0.09381 0.522552 -3.020363
2011-12-01 09:03:14 51°19.553 2°56.576 15.1572 0.09381 0.522562 -3.020363
2011-12-01 09:03:19 51°19.559 2°56.601 15.1473 0.09381 0.52258 -3.020363
2011-12-01 09:03:23 51°19.565 2°56.621 15.1441 0.09381 0.52258 -3.020363
2011-12-01 09:03:29 51°19.574 2°56.65 15.1565 0.09381 0.522562 -3.020363
2011-12-01 09:03:34 51°19.579 2°56.675 15.1441 0.09381 0.52258 -3.020363
2011-12-01 09:03:39 51°19.587 2°56.698 15.159 0.09381 0.522571 -3.020363
2011-12-01 09:03:44 51°19.593 2°56.724 15.1378 0.09381 0.52259 -3.020363
2011-12-01 09:03:49 51°19.602 2°56.748 15.1608 0.09381 0.522571 -3.020363
2011-12-01 09:03:54 51°19.608 2°56.772 15.153 0.09381 0.522571 -3.020363
2011-12-01 09:03:59 51°19.615 2°56.797 15.1596 0.09381 0.52258 -3.020363
2011-12-01 09:04:04 51°19.621 2°56.822 15.1493 0.09381 0.52258 -3.020363
2011-12-01 09:04:09 51°19.628 2°56.846 15.1608 0.09381 0.522571 -3.020363
2011-12-01 09:04:14 51°19.633 2°56.871 15.1618 0.09381 0.52258 -3.020363
2011-12-01 09:04:19 51°19.64 2°56.896 15.1565 0.09381 0.522571 -3.020363
2011-12-01 09:04:24 51°19.647 2°56.921 15.1681 0.09381 0.522571 -3.020363
2011-12-01 09:04:29 51°19.652 2°56.945 15.1732 0.09381 0.522571 -3.020363
2011-12-01 09:04:34 51°19.659 2°56.97 15.1711 0.09381 0.52259 -3.020363
2011-12-01 09:04:39 51°19.665 2°56.995 15.1686 0.09381 0.522571 -3.020363
2011-12-01 09:04:44 51°19.672 2°57.019 15.1806 0.09381 0.52258 -3.020363
2011-12-01 09:04:49 51°19.679 2°57.043 15.1717 0.09381 0.52258 -3.020363
2011-12-01 09:04:54 51°19.686 2°57.068 15.1712 0.09381 0.52258 -3.020363
2011-12-01 09:04:59 51°19.694 2°57.092 15.1622 0.09381 0.52258 -3.020363
2011-12-01 09:05:04 51°19.701 2°57.116 15.1928 0.09381 0.522562 -3.020363
2011-12-01 09:05:09 51°19.706 2°57.141 15.174 0.09381 0.522599 -3.020363
2011-12-01 09:05:14 51°19.714 2°57.165 15.1643 0.09381 0.52258 -3.020363
2011-12-01 09:05:19 51°19.721 2°57.189 15.198 0.09381 0.52258 -3.020363
2011-12-01 09:05:24 51°19.726 2°57.213 15.1806 0.09381 0.52258 -3.020363
2011-12-01 09:05:29 51°19.734 2°57.238 15.1676 0.09381 0.522609 -3.020363
2011-12-01 09:05:34 51°19.742 2°57.261 15.1956 0.09381 0.522562 -3.020363
2011-12-01 09:05:39 51°19.746 2°57.286 15.1904 0.09381 0.522609 -3.020363
2011-12-01 09:05:44 51°19.754 2°57.311 15.1733 0.09381 0.522609 -3.020363
2011-12-01 09:05:49 51°19.761 2°57.335 15.1766 0.09381 0.522562 -3.020363
2011-12-01 09:05:54 51°19.767 2°57.359 15.2055 0.09381 0.522562 -3.020363
2011-12-01 09:05:59 51°19.773 2°57.384 15.1813 0.09381 0.522609 -3.020363
2011-12-01 09:06:04 51°19.781 2°57.409 15.1821 0.09381 0.52258 -3.020363
2011-12-01 09:06:09 51°19.788 2°57.433 15.2067 0.09381 0.522562 -3.020363
2011-12-01 09:06:14 51°19.793 2°57.457 15.19 0.09381 0.52259 -3.020363
2011-12-01 09:06:19 51°19.801 2°57.482 15.1957 0.09381 0.522552 -3.020363
2011-12-01 09:06:24 51°19.808 2°57.506 15.2026 0.09381 0.522552 -3.020363
2011-12-01 09:06:29 51°19.814 2°57.53 15.1929 0.09381 0.522571 -3.020363
2011-12-01 09:06:34 51°19.822 2°57.555 15.1927 0.09381 0.522571 -3.020363
2011-12-01 09:06:39 51°19.829 2°57.579 15.2011 0.09381 0.522552 -3.020363
2011-12-01 09:06:44 51°19.836 2°57.602 15.2101 0.09381 0.522562 -3.020363
2011-12-01 09:06:49 51°19.842 2°57.627 15.2044 0.09381 0.522571 -3.020363
2011-12-01 09:06:54 51°19.85 2°57.651 15.2016 0.09381 0.522571 -3.020363
2011-12-01 09:06:59 51°19.857 2°57.674 15.2113 0.09381 0.522562 -3.020363
2011-12-01 09:07:04 51°19.863 2°57.698 15.2029 0.09381 0.52259 -3.020363
2011-12-01 09:07:09 51°19.871 2°57.722 15.2025 0.09381 0.52258 -3.020363
2011-12-01 09:07:14 51°19.878 2°57.746 15.2166 0.09381 0.52259 -3.020363
2011-12-01 09:07:19 51°19.885 2°57.769 15.2023 0.09381 0.52259 -3.020363
2011-12-01 09:07:24 51°19.892 2°57.793 15.2139 0.09381 0.52259 -3.020363
2011-12-01 09:07:29 51°19.899 2°57.817 15.2223 0.09381 0.52258 -3.020363
2011-12-01 09:07:34 51°19.906 2°57.842 15.2153 0.09381 0.52259 -3.020363
2011-12-01 09:07:39 51°19.913 2°57.866 15.2219 0.09381 0.52258 -3.020363
2011-12-01 09:07:44 51°19.92 2°57.891 15.2236 0.09381 0.52258 -3.020363
2011-12-01 09:07:49 51°19.926 2°57.914 15.2191 0.09381 0.52258 -3.020363
2011-12-01 09:07:54 51°19.932 2°57.939 15.2287 0.09381 0.52258 -3.020363
2011-12-01 09:07:59 51°19.939 2°57.965 15.2196 0.09381 0.52258 -3.020363
2011-12-01 09:08:04 51°19.945 2°57.989 15.2264 0.09381 0.522571 -3.020363
2011-12-01 09:08:09 51°19.952 2°58.013 15.2315 0.09381 0.522571 -3.020363
2011-12-01 09:08:14 51°19.959 2°58.037 15.2347 0.09381 0.52258 -3.020363
2011-12-01 09:08:19 51°19.965 2°58.061 15.2314 0.09381 0.52259 -3.020363
2011-12-01 09:08:24 51°19.973 2°58.086 15.2296 0.09381 0.52259 -3.020363
2011-12-01 09:08:29 51°19.98 2°58.11 15.2261 0.09381 0.52258 -3.020363
2011-12-01 09:08:34 51°19.986 2°58.134 15.2505 0.09381 0.522571 -3.020363
2011-12-01 09:08:39 51°19.992 2°58.159 15.2392 0.09381 0.522609 -3.020363
2011-12-01 09:08:44 51°19.999 2°58.184 15.2332 0.09381 0.52259 -3.020363
2011-12-01 09:08:49 51°20.006 2°58.208 15.2527 0.09381 0.52259 -3.020363
2011-12-01 09:08:54 51°20.011 2°58.232 15.2373 0.09381 0.52259 -3.020363
2011-12-01 09:08:59 51°20.019 2°58.256 15.2391 0.09381 0.522599 -3.020363
2011-12-01 09:09:04 51°20.025 2°58.281 15.2327 0.09381 0.52259 -3.020363
2011-12-01 09:09:09 51°20.032 2°58.304 15.2575 0.09381 0.52259 -3.020363
2011-12-01 09:09:14 51°20.038 2°58.33 15.2357 0.09381 0.522599 -3.020363
2011-12-01 09:09:19 51°20.045 2°58.354 15.256 0.09381 0.52259 -3.020363
2011-12-01 09:09:24 51°20.051 2°58.38 15.2461 0.09381 0.52259 -3.020363
2011-12-01 09:09:29 51°20.058 2°58.404 15.2469 0.09381 0.522599 -3.020363
2011-12-01 09:09:34 51°20.064 2°58.428 15.2619 0.09381 0.52258 -3.020363
2011-12-01 09:09:39 51°20.07 2°58.453 15.2463 0.09381 0.522599 -3.020363
2011-12-01 09:09:44 51°20.077 2°58.478 15.2614 0.09381 0.52259 -3.020363
2011-12-01 09:09:49 51°20.083 2°58.503 15.2509 0.09381 0.522599 -3.020363
2011-12-01 09:09:54 51°20.09 2°58.527 15.2614 0.09381 0.522599 -3.020363
2011-12-01 09:09:59 51°20.096 2°58.551 15.2692 0.09381 0.52259 -3.020363
2011-12-01 09:10:04 51°20.103 2°58.575 15.2604 0.09381 0.522599 -3.020363
2011-12-01 09:10:09 51°20.111 2°58.599 15.2641 0.09381 0.522599 -3.020363
2011-12-01 09:10:14 51°20.118 2°58.623 15.276 0.09381 0.52259 -3.020363
2011-12-01 09:10:19 51°20.124 2°58.647 15.2654 0.09381 0.52259 -3.020363
2011-12-01 09:10:24 51°20.132 2°58.671 15.2648 0.09381 0.52259 -3.020363
2011-12-01 09:10:29 51°20.139 2°58.695 15.2712 0.09381 0.52259 -3.020363
2011-12-01 09:10:34 51°20.146 2°58.719 15.277 0.09381 0.52259 -3.020363
2011-12-01 09:10:39 51°20.153 2°58.743 15.2734 0.09381 0.522599 -3.020363
2011-12-01 09:10:43 51°20.159 2°58.762 15.2815 0.09381 0.522609 -3.020363
2011-12-01 09:10:49 51°20.168 2°58.791 15.2631 0.09381 0.52259 -3.020363
2011-12-01 09:10:54 51°20.176 2°58.815 15.2874 0.09381 0.52259 -3.020363
2011-12-01 09:10:59 51°20.182 2°58.839 15.2795 0.09381 0.522609 -3.020363
2011-12-01 09:11:04 51°20.19 2°58.863 15.2804 0.09381 0.522609 -3.020363
2011-12-01 09:11:09 51°20.197 2°58.886 15.2762 0.09381 0.522609 -3.020363
2011-12-01 09:11:14 51°20.205 2°58.911 15.2822 0.09381 0.522618 -3.020363
2011-12-01 09:11:19 51°20.212 2°58.935 15.2757 0.09381 0.52258 -3.020363
2011-12-01 09:11:24 51°20.218 2°58.959 15.3051 0.09381 0.52258 -3.020363
2011-12-01 09:11:29 51°20.224 2°58.984 15.2767 0.09381 0.522628 -3.020363
2011-12-01 09:11:34 51°20.232 2°59.008 15.2876 0.09381 0.522609 -3.020363
2011-12-01 09:11:39 51°20.238 2°59.033 15.2865 0.09381 0.522599 -3.020363
2011-12-01 09:11:44 51°20.245 2°59.056 15.2958 0.09381 0.52259 -3.020363
2011-12-01 09:11:49 51°20.251 2°59.081 15.291 0.09381 0.522618 -3.020363
2011-12-01 09:11:54 51°20.258 2°59.106 15.2768 0.09381 0.522618 -3.020363
2011-12-01 09:11:59 51°20.265 2°59.129 15.3039 0.09381 0.52258 -3.020363
2011-12-01 09:12:04 51°20.271 2°59.153 15.2993 0.09381 0.522599 -3.020363
2011-12-01 09:12:09 51°20.279 2°59.178 15.29 0.09381 0.522609 -3.020363
2011-12-01 09:12:14 51°20.287 2°59.202 15.2949 0.09381 0.52259 -3.020363
2011-12-01 09:12:19 51°20.293 2°59.225 15.3031 0.09381 0.522599 -3.020363
2011-12-01 09:12:23 51°20.298 2°59.245 15.2975 0.09381 0.522599 -3.020363
2011-12-01 09:12:29 51°20.307 2°59.275 15.3015 0.09381 0.522599 -3.020363
2011-12-01 09:12:34 51°20.314 2°59.298 15.3149 0.09381 0.52259 -3.020363
2011-12-01 09:12:39 51°20.321 2°59.322 15.3104 0.09381 0.522609 -3.020363
2011-12-01 09:12:44 51°20.328 2°59.346 15.2929 0.09381 0.522609 -3.020363
2011-12-01 09:12:49 51°20.336 2°59.37 15.3153 0.09381 0.52259 -3.020363
2011-12-01 09:12:54 51°20.342 2°59.394 15.3025 0.09381 0.52259 -3.020363
2011-12-01 09:12:59 51°20.349 2°59.418 15.3121 0.09381 0.522599 -3.020363
2011-12-01 09:13:04 51°20.354 2°59.443 15.3137 0.09381 0.522599 -3.020363
2011-12-01 09:13:09 51°20.36 2°59.468 15.3083 0.09381 0.522609 -3.020363
2011-12-01 09:13:14 51°20.366 2°59.492 15.3075 0.09381 0.522599 -3.020363
2011-12-01 09:13:19 51°20.372 2°59.517 15.3234 0.09381 0.522599 -3.020363
2011-12-01 09:13:24 51°20.377 2°59.543 15.3271 0.09381 0.522599 -3.020363
2011-12-01 09:13:29 51°20.383 2°59.568 15.3147 0.09381 0.522609 -3.020363
2011-12-01 09:13:34 51°20.389 2°59.592 15.3236 0.09381 0.52259 -3.020363
2011-12-01 09:13:39 51°20.395 2°59.616 15.3108 0.09381 0.522599 -3.020363
2011-12-01 09:13:44 51°20.401 2°59.641 15.3322 0.09381 0.52259 -3.020363
2011-12-01 09:13:49 51°20.406 2°59.667 15.325 0.09381 0.522609 -3.020363
2011-12-01 09:13:54 51°20.412 2°59.691 15.3214 0.09381 0.522609 -3.020363
2011-12-01 09:13:59 51°20.418 2°59.715 15.3398 0.09381 0.52259 -3.020363
2011-12-01 09:14:04 51°20.424 2°59.74 15.3238 0.09381 0.522609 -3.020363
2011-12-01 09:14:09 51°20.43 2°59.764 15.3267 0.09381 0.522599 -3.020363
2011-12-01 09:14:14 51°20.436 2°59.789 15.3387 0.09381 0.522599 -3.020363
2011-12-01 09:14:19 51°20.442 2°59.813 15.3382 0.09381 0.522599 -3.020363
2011-12-01 09:14:24 51°20.448 2°59.837 15.3398 0.09381 0.522599 -3.020363
2011-12-01 09:14:29 51°20.455 2°59.861 15.3271 0.09381 0.522609 -3.020363
2011-12-01 09:14:34 51°20.462 2°59.884 15.3371 0.09381 0.522599 -3.020363
2011-12-01 09:14:39 51°20.469 2°59.908 15.3381 0.09381 0.52259 -3.020363
2011-12-01 09:14:44 51°20.476 2°59.932 15.3505 0.09381 0.52259 -3.020363
2011-12-01 09:14:49 51°20.482 2°59.957 15.3369 0.09381 0.522609 -3.020363
2011-12-01 09:14:54 51°20.489 2°59.981 15.3419 0.09381 0.522609 -3.020363
2011-12-01 09:14:59 51°20.495 3°0.005 15.3572 0.09381 0.522599 -3.020363
2011-12-01 09:15:04 51°20.502 3°0.028 15.347 0.09381 0.522599 -3.020363
2011-12-01 09:15:09 51°20.509 3°0.052 15.3409 0.09381 0.522609 -3.020363
2011-12-01 09:15:14 51°20.517 3°0.075 15.3534 0.09381 0.522599 -3.020363
2011-12-01 09:15:19 51°20.524 3°0.099 15.3549 0.09381 0.522609 -3.020363
2011-12-01 09:15:24 51°20.531 3°0.123 15.3403 0.09381 0.522609 -3.020363
2011-12-01 09:15:29 51°20.539 3°0.146 15.3468 0.09381 0.522599 -3.020363
2011-12-01 09:15:35 51°20.547 3°0.175 15.3511 0.09381 0.52259 -3.020363
2011-12-01 09:15:39 51°20.553 3°0.194 15.3676 0.09381 0.52259 -3.020363
2011-12-01 09:15:44 51°20.559 3°0.218 15.3434 0.09381 0.522609 -3.020363
2011-12-01 09:15:49 51°20.567 3°0.242 15.3477 0.09381 0.52259 -3.020363
2011-12-01 09:15:54 51°20.573 3°0.266 15.3651 0.09381 0.52259 -3.020363
2011-12-01 09:15:59 51°20.579 3°0.29 15.3652 0.09381 0.522599 -3.020363
2011-12-01 09:16:04 51°20.585 3°0.315 15.3468 0.09381 0.522609 -3.020363
2011-12-01 09:16:09 51°20.592 3°0.339 15.3728 0.09381 0.52258 -3.020363
2011-12-01 09:16:14 51°20.597 3°0.363 15.3657 0.09381 0.522618 -3.020363
2011-12-01 09:16:19 51°20.604 3°0.387 15.3617 0.09381 0.522599 -3.020363
2011-12-01 09:16:24 51°20.611 3°0.412 15.3686 0.09381 0.522599 -3.020363
2011-12-01 09:16:29 51°20.617 3°0.436 15.3796 0.09381 0.52259 -3.020363
2011-12-01 09:16:34 51°20.624 3°0.46 15.3547 0.09381 0.522609 -3.020363
2011-12-01 09:16:39 51°20.631 3°0.484 15.3537 0.09381 0.52259 -3.020363
2011-12-01 09:16:44 51°20.637 3°0.508 15.3665 0.09381 0.52258 -3.020363
2011-12-01 09:16:49 51°20.642 3°0.533 15.3791 0.09381 0.52259 -3.020363
2011-12-01 09:16:54 51°20.648 3°0.557 15.3613 0.09381 0.52259 -3.020363
2011-12-01 09:16:59 51°20.654 3°0.582 15.3768 0.09381 0.52258 -3.020363
2011-12-01 09:17:04 51°20.66 3°0.605 15.395 0.09381 0.52258 -3.020363
2011-12-01 09:17:09 51°20.666 3°0.63 15.3823 0.09381 0.522599 -3.020363
2011-12-01 09:17:14 51°20.673 3°0.654 15.3825 0.09381 0.522609 -3.020363
2011-12-01 09:17:19 51°20.68 3°0.678 15.3681 0.09381 0.52259 -3.020363
2011-12-01 09:17:24 51°20.686 3°0.7 15.4038 0.09381 0.52259 -3.020363
2011-12-01 09:17:29 51°20.693 3°0.725 15.3672 0.09381 0.522618 -3.020363
2011-12-01 09:17:35 51°20.702 3°0.753 15.381 0.09381 0.522599 -3.020363
2011-12-01 09:17:39 51°20.707 3°0.771 15.4004 0.09381 0.52259 -3.020363
2011-12-01 09:17:44 51°20.713 3°0.795 15.3823 0.09381 0.522609 -3.020363
2011-12-01 09:17:49 51°20.721 3°0.819 15.3816 0.09381 0.52259 -3.020363
2011-12-01 09:17:55 51°20.728 3°0.847 15.388 0.09381 0.52259 -3.020363
2011-12-01 09:17:59 51°20.734 3°0.865 15.3885 0.09381 0.52259 -3.020363
2011-12-01 09:18:04 51°20.741 3°0.889 15.3889 0.09381 0.52259 -3.020363
2011-12-01 09:18:09 51°20.748 3°0.913 15.3809 0.09381 0.52259 -3.020363
2011-12-01 09:18:14 51°20.755 3°0.937 15.3947 0.09381 0.522571 -3.020363
2011-12-01 09:18:19 51°20.761 3°0.96 15.3949 0.09381 0.52258 -3.020363
2011-12-01 09:18:24 51°20.767 3°0.984 15.4018 0.09381 0.52258 -3.020363
2011-12-01 09:18:29 51°20.772 3°1.009 15.4009 0.09381 0.52259 -3.020363
2011-12-01 09:18:34 51°20.779 3°1.034 15.396 0.09381 0.522599 -3.020363
2011-12-01 09:18:39 51°20.785 3°1.058 15.4157 0.09381 0.52258 -3.020363
2011-12-01 09:18:44 51°20.791 3°1.082 15.4139 0.09381 0.522599 -3.020363
2011-12-01 09:18:49 51°20.797 3°1.106 15.3854 0.09381 0.52259 -3.020363
2011-12-01 09:18:54 51°20.805 3°1.13 15.4083 0.09381 0.52259 -3.020363
2011-12-01 09:18:59 51°20.81 3°1.154 15.4095 0.09381 0.52259 -3.020363
2011-12-01 09:19:04 51°20.816 3°1.178 15.424 0.09381 0.52258 -3.020363
2011-12-01 09:19:09 51°20.822 3°1.202 15.4093 0.09381 0.522609 -3.020363
2011-12-01 09:19:14 51°20.829 3°1.226 15.4109 0.09381 0.522599 -3.020363
2011-12-01 09:19:19 51°20.835 3°1.25 15.4034 0.09381 0.52259 -3.020363
2011-12-01 09:19:23 51°20.841 3°1.269 15.4234 0.09381 0.52259 -3.020363
2011-12-01 09:19:29 51°20.848 3°1.297 15.4124 0.09381 0.52259 -3.020363
2011-12-01 09:19:34 51°20.854 3°1.322 15.4185 0.09381 0.52259 -3.020363
2011-12-01 09:19:39 51°20.861 3°1.345 15.4268 0.09381 0.52258 -3.020363
2011-12-01 09:19:44 51°20.866 3°1.37 15.4226 0.09381 0.52259 -3.020363
2011-12-01 09:19:49 51°20.873 3°1.393 15.4178 0.09381 0.52259 -3.020363
2011-12-01 09:19:54 51°20.879 3°1.417 15.4207 0.09381 0.52259 -3.020363
2011-12-01 09:19:59 51°20.886 3°1.441 15.4215 0.09381 0.52259 -3.020363
2011-12-01 09:20:04 51°20.892 3°1.466 15.4246 0.09381 0.52259 -3.020363
2011-12-01 09:20:09 51°20.899 3°1.49 15.4184 0.09381 0.52259 -3.020363
2011-12-01 09:20:14 51°20.905 3°1.513 15.4354 0.09381 0.52259 -3.020363
2011-12-01 09:20:19 51°20.911 3°1.537 15.4422 0.09381 0.522599 -3.020363
2011-12-01 09:20:24 51°20.917 3°1.562 15.4322 0.09381 0.522599 -3.020363
2011-12-01 09:20:29 51°20.924 3°1.585 15.4268 0.09381 0.522609 -3.020363
2011-12-01 09:20:34 51°20.93 3°1.609 15.453 0.09381 0.52259 -3.020363
2011-12-01 09:20:39 51°20.936 3°1.633 15.4289 0.09381 0.522609 -3.020363
2011-12-01 09:20:44 51°20.943 3°1.656 15.4366 0.09381 0.52259 -3.020363
2011-12-01 09:20:49 51°20.949 3°1.679 15.4455 0.09381 0.522609 -3.020363
2011-12-01 09:20:54 51°20.955 3°1.704 15.4164 0.09381 0.522609 -3.020363
2011-12-01 09:20:59 51°20.963 3°1.727 15.4519 0.09381 0.52259 -3.020363
2011-12-01 09:21:04 51°20.968 3°1.751 15.4554 0.09381 0.52259 -3.020363
2011-12-01 09:21:09 51°20.975 3°1.774 15.4306 0.09381 0.522609 -3.020363
2011-12-01 09:21:14 51°20.982 3°1.798 15.4494 0.09381 0.52258 -3.020363
2011-12-01 09:21:19 51°20.988 3°1.821 15.4549 0.09381 0.52258 -3.020363
2011-12-01 09:21:24 51°20.995 3°1.844 15.4456 0.09381 0.52258 -3.020363
2011-12-01 09:21:29 51°21.003 3°1.867 15.4441 0.09381 0.52258 -3.020363
2011-12-01 09:21:34 51°21.01 3°1.89 15.444 0.09381 0.52258 -3.020363
2011-12-01 09:21:39 51°21.018 3°1.913 15.4579 0.09381 0.52258 -3.020363
2011-12-01 09:21:44 51°21.025 3°1.936 15.4359 0.09381 0.52259 -3.020363
2011-12-01 09:21:49 51°21.033 3°1.958 15.4644 0.09381 0.52258 -3.020363
2011-12-01 09:21:54 51°21.04 3°1.981 15.4622 0.09381 0.52258 -3.020363
2011-12-01 09:21:59 51°21.048 3°2.003 15.4441 0.09381 0.522599 -3.020363
2011-12-01 09:22:04 51°21.055 3°2.027 15.4343 0.09381 0.522609 -3.020363
2011-12-01 09:22:09 51°21.063 3°2.05 15.4816 0.09381 0.52258 -3.020363
2011-12-01 09:22:15 51°21.069 3°2.078 15.4587 0.09381 0.522618 -3.020363
2011-12-01 09:22:19 51°21.076 3°2.097 15.458 0.09381 0.522599 -3.020363
2011-12-01 09:22:24 51°21.082 3°2.12 15.4619 0.09381 0.522599 -3.020363
2011-12-01 09:22:29 51°21.089 3°2.143 15.4748 0.09381 0.522599 -3.020363
2011-12-01 09:22:34 51°21.096 3°2.167 15.4635 0.09381 0.522599 -3.020363
2011-12-01 09:22:39 51°21.103 3°2.191 15.4641 0.09381 0.52259 -3.020363
2011-12-01 09:22:44 51°21.109 3°2.214 15.4631 0.09381 0.52258 -3.020363
2011-12-01 09:22:49 51°21.115 3°2.237 15.476 0.09381 0.52258 -3.020363
2011-12-01 09:22:54 51°21.121 3°2.262 15.4654 0.09381 0.52258 -3.020363
2011-12-01 09:22:59 51°21.127 3°2.286 15.4693 0.09381 0.52258 -3.020363
2011-12-01 09:23:04 51°21.133 3°2.31 15.4754 0.09381 0.522571 -3.020363
2011-12-01 09:23:09 51°21.139 3°2.334 15.4723 0.09381 0.52258 -3.020363
2011-12-01 09:23:14 51°21.145 3°2.358 15.4797 0.09381 0.52258 -3.020363
2011-12-01 09:23:19 51°21.15 3°2.382 15.4666 0.09381 0.52258 -3.020363
2011-12-01 09:23:24 51°21.157 3°2.406 15.4828 0.09381 0.52258 -3.020363
2011-12-01 09:23:29 51°21.162 3°2.43 15.4807 0.09381 0.522599 -3.020363
2011-12-01 09:23:34 51°21.168 3°2.455 15.486 0.09381 0.52259 -3.020363
2011-12-01 09:23:39 51°21.174 3°2.479 15.4852 0.09381 0.52259 -3.020363
2011-12-01 09:23:44 51°21.179 3°2.503 15.4825 0.09381 0.522609 -3.020363
2011-12-01 09:23:49 51°21.185 3°2.526 15.4939 0.09381 0.52259 -3.020363
2011-12-01 09:23:54 51°21.19 3°2.551 15.499 0.09381 0.52259 -3.020363
2011-12-01 09:23:59 51°21.196 3°2.575 15.4863 0.09381 0.522609 -3.020363
2011-12-01 09:24:04 51°21.203 3°2.599 15.4884 0.09381 0.522599 -3.020363
2011-12-01 09:24:09 51°21.209 3°2.622 15.5062 0.09381 0.52258 -3.020363
2011-12-01 09:24:14 51°21.215 3°2.646 15.498 0.09381 0.522599 -3.020363
2011-12-01 09:24:19 51°21.222 3°2.67 15.4792 0.09381 0.52258 -3.020363
2011-12-01 09:24:24 51°21.229 3°2.693 15.5096 0.09381 0.52258 -3.020363
2011-12-01 09:24:29 51°21.234 3°2.717 15.5081 0.09381 0.52258 -3.020363
2011-12-01 09:24:34 51°21.241 3°2.74 15.4841 0.09381 0.522599 -3.020363
2011-12-01 09:24:39 51°21.248 3°2.762 15.5162 0.09381 0.522562 -3.020363
2011-12-01 09:24:44 51°21.253 3°2.786 15.4991 0.09381 0.522618 -3.020363
2011-12-01 09:24:49 51°21.261 3°2.81 15.4816 0.09381 0.52258 -3.020363
2011-12-01 09:24:54 51°21.268 3°2.833 15.5211 0.09381 0.52258 -3.020363
2011-12-01 09:24:59 51°21.274 3°2.856 15.4937 0.09381 0.52259 -3.020363
2011-12-01 09:25:04 51°21.282 3°2.879 15.5024 0.09381 0.52258 -3.020363
2011-12-01 09:25:09 51°21.288 3°2.901 15.5102 0.09381 0.522571 -3.020363
2011-12-01 09:25:14 51°21.295 3°2.925 15.5141 0.09381 0.52258 -3.020363
2011-12-01 09:25:19 51°21.302 3°2.949 15.5025 0.09381 0.522571 -3.020363
2011-12-01 09:25:24 51°21.31 3°2.971 15.5122 0.09381 0.522571 -3.020363
2011-12-01 09:25:29 51°21.316 3°2.994 15.5165 0.09381 0.522562 -3.020363
2011-12-01 09:25:34 51°21.324 3°3.016 15.5081 0.09381 0.52258 -3.020363
2011-12-01 09:25:39 51°21.332 3°3.039 15.5141 0.09381 0.522571 -3.020363
2011-12-01 09:25:44 51°21.339 3°3.061 15.5024 0.09381 0.52258 -3.020363
2011-12-01 09:25:49 51°21.347 3°3.084 15.5217 0.09381 0.52258 -3.020363
2011-12-01 09:25:54 51°21.354 3°3.107 15.5174 0.09381 0.52258 -3.020363
2011-12-01 09:25:59 51°21.361 3°3.129 15.5274 0.09381 0.522571 -3.020363
2011-12-01 09:26:03 51°21.367 3°3.148 15.5058 0.09381 0.522599 -3.020363
2011-12-01 09:26:09 51°21.376 3°3.175 15.5193 0.09381 0.52259 -3.020363
2011-12-01 09:26:14 51°21.383 3°3.198 15.5248 0.09381 0.52259 -3.020363
2011-12-01 09:26:19 51°21.39 3°3.22 15.5293 0.09381 0.52259 -3.020363
2011-12-01 09:26:24 51°21.396 3°3.243 15.5217 0.09381 0.52259 -3.020363
2011-12-01 09:26:29 51°21.404 3°3.266 15.5186 0.09381 0.522599 -3.020363
2011-12-01 09:26:34 51°21.411 3°3.289 15.5262 0.09381 0.52259 -3.020363
2011-12-01 09:26:39 51°21.417 3°3.312 15.531 0.09381 0.52258 -3.020363
2011-12-01 09:26:44 51°21.424 3°3.336 15.5312 0.09381 0.52258 -3.020363
2011-12-01 09:26:49 51°21.43 3°3.359 15.5404 0.09381 0.522571 -3.020363
2011-12-01 09:26:54 51°21.436 3°3.383 15.531 0.09381 0.522571 -3.020363
2011-12-01 09:26:59 51°21.442 3°3.407 15.5225 0.09381 0.52258 -3.020363
2011-12-01 09:27:04 51°21.448 3°3.43 15.5388 0.09381 0.522571 -3.020363
2011-12-01 09:27:09 51°21.454 3°3.454 15.5428 0.09381 0.522571 -3.020363
2011-12-01 09:27:14 51°21.46 3°3.478 15.5431 0.09381 0.52258 -3.020363
2011-12-01 09:27:19 51°21.465 3°3.502 15.5278 0.09381 0.52258 -3.020363
2011-12-01 09:27:24 51°21.472 3°3.526 15.5426 0.09381 0.52258 -3.020363
2011-12-01 09:27:29 51°21.477 3°3.55 15.5483 0.09381 0.52258 -3.020363
2011-12-01 09:27:34 51°21.483 3°3.573 15.5587 0.09381 0.52258 -3.020363
2011-12-01 09:27:39 51°21.488 3°3.597 15.5508 0.09381 0.522599 -3.020363
2011-12-01 09:27:44 51°21.495 3°3.621 15.5284 0.09381 0.52259 -3.020363
2011-12-01 09:27:49 51°21.502 3°3.644 15.5674 0.09381 0.522571 -3.020363
2011-12-01 09:27:54 51°21.507 3°3.667 15.5753 0.09381 0.522571 -3.020363
2011-12-01 09:27:59 51°21.513 3°3.691 15.5488 0.09381 0.522599 -3.020363
2011-12-01 09:28:04 51°21.521 3°3.714 15.5433 0.09381 0.52259 -3.020363
2011-12-01 09:28:09 51°21.527 3°3.737 15.5571 0.09381 0.522571 -3.020363
2011-12-01 09:28:14 51°21.534 3°3.759 15.562 0.09381 0.522571 -3.020363
2011-12-01 09:28:19 51°21.54 3°3.783 15.5477 0.09381 0.52258 -3.020363
2011-12-01 09:28:24 51°21.548 3°3.805 15.5429 0.09381 0.52258 -3.020363
2011-12-01 09:28:29 51°21.554 3°3.827 15.5581 0.09381 0.522571 -3.020363
2011-12-01 09:28:34 51°21.561 3°3.85 15.5407 0.09381 0.522571 -3.020363
2011-12-01 09:28:39 51°21.567 3°3.874 15.5581 0.09381 0.522562 -3.020363
2011-12-01 09:28:44 51°21.572 3°3.897 15.5596 0.09381 0.52258 -3.020363
2011-12-01 09:28:49 51°21.579 3°3.92 15.5636 0.09381 0.522571 -3.020363
2011-12-01 09:28:54 51°21.584 3°3.944 15.5635 0.09381 0.522571 -3.020363
2011-12-01 09:28:59 51°21.59 3°3.968 15.579 0.09381 0.522571 -3.020363
2011-12-01 09:29:04 51°21.595 3°3.992 15.5632 0.09381 0.52259 -3.020363
2011-12-01 09:29:09 51°21.602 3°4.015 15.5456 0.09381 0.52258 -3.020363
2011-12-01 09:29:14 51°21.608 3°4.038 15.5767 0.09381 0.522571 -3.020363
2011-12-01 09:29:19 51°21.614 3°4.061 15.5871 0.09381 0.52258 -3.020363
2011-12-01 09:29:24 51°21.62 3°4.085 15.5672 0.09381 0.52258 -3.020363
2011-12-01 09:29:29 51°21.627 3°4.108 15.5524 0.09381 0.522599 -3.020363
2011-12-01 09:29:34 51°21.634 3°4.131 15.5926 0.09381 0.522552 -3.020363
2011-12-01 09:29:39 51°21.639 3°4.154 15.5877 0.09381 0.52258 -3.020363
2011-12-01 09:29:44 51°21.646 3°4.177 15.578 0.09381 0.52258 -3.020363
2011-12-01 09:29:49 51°21.653 3°4.201 15.5647 0.09381 0.522552 -3.020363
2011-12-01 09:29:54 51°21.66 3°4.222 15.5883 0.09381 0.522552 -3.020363
2011-12-01 09:29:59 51°21.666 3°4.246 15.5843 0.09381 0.522552 -3.020363
2011-12-01 09:30:04 51°21.673 3°4.269 15.5681 0.09381 0.522571 -3.020363
2011-12-01 09:30:09 51°21.679 3°4.292 15.5563 0.09381 0.522552 -3.020363
2011-12-01 09:30:14 51°21.685 3°4.315 15.6049 0.09381 0.522562 -3.020363
2011-12-01 09:30:19 51°21.69 3°4.339 15.5767 0.09381 0.522552 -3.020363
2011-12-01 09:30:24 51°21.696 3°4.362 15.5955 0.09381 0.522552 -3.020363
2011-12-01 09:30:29 51°21.702 3°4.385 15.5718 0.09381 0.522571 -3.020363
2011-12-01 09:30:34 51°21.708 3°4.408 15.5845 0.09381 0.522562 -3.020363
2011-12-01 09:30:39 51°21.713 3°4.432 15.5792 0.09381 0.522562 -3.020363
2011-12-01 09:30:44 51°21.718 3°4.456 15.5761 0.09381 0.522562 -3.020363
2011-12-01 09:30:49 51°21.723 3°4.479 15.6012 0.09381 0.522571 -3.020363
2011-12-01 09:30:55 51°21.728 3°4.509 15.5841 0.09381 0.522571 -3.020363
2011-12-01 09:30:59 51°21.733 3°4.528 15.5993 0.09381 0.522571 -3.020363
2011-12-01 09:31:04 51°21.737 3°4.552 15.5991 0.09381 0.522562 -3.020363
2011-12-01 09:31:09 51°21.742 3°4.575 15.611 0.09381 0.522571 -3.020363
2011-12-01 09:31:14 51°21.748 3°4.599 15.5783 0.09381 0.522571 -3.020363
2011-12-01 09:31:19 51°21.754 3°4.623 15.6009 0.09381 0.522552 -3.020363
2011-12-01 09:31:24 51°21.759 3°4.646 15.6005 0.09381 0.522552 -3.020363
2011-12-01 09:31:29 51°21.764 3°4.669 15.6071 0.09381 0.522552 -3.020363
2011-12-01 09:31:34 51°21.769 3°4.693 15.6073 0.09381 0.522562 -3.020363
2011-12-01 09:31:39 51°21.775 3°4.717 15.6058 0.09381 0.522562 -3.020363
2011-12-01 09:31:44 51°21.78 3°4.741 15.5997 0.09381 0.522562 -3.020363
2011-12-01 09:31:49 51°21.786 3°4.765 15.5983 0.09381 0.522571 -3.020363
2011-12-01 09:31:54 51°21.792 3°4.789 15.61 0.09381 0.522571 -3.020363
2011-12-01 09:31:59 51°21.797 3°4.813 15.615 0.09381 0.522562 -3.020363
2011-12-01 09:32:04 51°21.803 3°4.836 15.6204 0.09381 0.522552 -3.020363
2011-12-01 09:32:09 51°21.808 3°4.861 15.6007 0.09381 0.52258 -3.020363
2011-12-01 09:32:14 51°21.814 3°4.885 15.5945 0.09381 0.522562 -3.020363
2011-12-01 09:32:19 51°21.819 3°4.909 15.6409 0.09381 0.522562 -3.020363
2011-12-01 09:32:24 51°21.822 3°4.933 15.6189 0.09381 0.522562 -3.020363
2011-12-01 09:32:29 51°21.828 3°4.957 15.6304 0.09381 0.522562 -3.020363
2011-12-01 09:32:34 51°21.833 3°4.981 15.6051 0.09381 0.522571 -3.020363
2011-12-01 09:32:39 51°21.839 3°5.004 15.6186 0.09381 0.522562 -3.020363
2011-12-01 09:32:43 51°21.842 3°5.023 15.6183 0.09381 0.522562 -3.020363
2011-12-01 09:32:49 51°21.849 3°5.052 15.6293 0.09381 0.522552 -3.020363
2011-12-01 09:32:54 51°21.853 3°5.075 15.6147 0.09381 0.522552 -3.020363
2011-12-01 09:32:59 51°21.858 3°5.099 15.6274 0.09381 0.522552 -3.020363
2011-12-01 09:33:04 51°21.862 3°5.123 15.6197 0.09381 0.522552 -3.020363
2011-12-01 09:33:09 51°21.867 3°5.147 15.6206 0.09381 0.522543 -3.020363
2011-12-01 09:33:14 51°21.871 3°5.17 15.6301 0.09381 0.522543 -3.020363
2011-12-01 09:33:19 51°21.875 3°5.194 15.6482 0.09381 0.522552 -3.020363
2011-12-01 09:33:24 51°21.879 3°5.218 15.6413 0.09381 0.522552 -3.020363
2011-12-01 09:33:29 51°21.884 3°5.243 15.6186 0.09381 0.522562 -3.020363
2011-12-01 09:33:35 51°21.891 3°5.271 15.6345 0.09381 0.522543 -3.020363
2011-12-01 09:33:39 51°21.894 3°5.288 15.6351 0.09381 0.522562 -3.020363
2011-12-01 09:33:44 51°21.899 3°5.312 15.6247 0.09381 0.522571 -3.020363
2011-12-01 09:33:49 51°21.905 3°5.336 15.6147 0.09381 0.522543 -3.020363
2011-12-01 09:33:54 51°21.91 3°5.359 15.665 0.09381 0.522543 -3.020363
2011-12-01 09:33:59 51°21.914 3°5.382 15.6482 0.09381 0.522552 -3.020363
2011-12-01 09:34:04 51°21.92 3°5.406 15.6242 0.09381 0.522571 -3.020363
2011-12-01 09:34:09 51°21.926 3°5.43 15.6348 0.09381 0.522552 -3.020363
2011-12-01 09:34:14 51°21.931 3°5.452 15.6549 0.09381 0.522543 -3.020363
2011-12-01 09:34:19 51°21.935 3°5.476 15.6357 0.09381 0.522552 -3.020363
2011-12-01 09:34:24 51°21.941 3°5.499 15.6384 0.09381 0.522552 -3.020363
2011-12-01 09:34:29 51°21.946 3°5.523 15.6464 0.09381 0.522533 -3.020363
2011-12-01 09:34:34 51°21.952 3°5.546 15.6528 0.09381 0.522533 -3.020363
2011-12-01 09:34:39 51°21.957 3°5.569 15.6527 0.09381 0.522533 -3.020363
2011-12-01 09:34:44 51°21.961 3°5.593 15.6494 0.09381 0.522552 -3.020363
2011-12-01 09:34:49 51°21.967 3°5.616 15.6402 0.09381 0.522533 -3.020363
2011-12-01 09:34:54 51°21.972 3°5.639 15.6572 0.09381 0.522533 -3.020363
2011-12-01 09:34:59 51°21.976 3°5.662 15.66 0.09381 0.522543 -3.020363
2011-12-01 09:35:04 51°21.981 3°5.685 15.6667 0.09381 0.522552 -3.020363
2011-12-01 09:35:09 51°21.986 3°5.709 15.6406 0.09381 0.522552 -3.020363
2011-12-01 09:35:14 51°21.992 3°5.731 15.6864 0.09381 0.522543 -3.020363
2011-12-01 09:35:19 51°21.996 3°5.755 15.6371 0.09381 0.522562 -3.020363
2011-12-01 09:35:24 51°22.003 3°5.778 15.6444 0.09381 0.522562 -3.020363
2011-12-01 09:35:29 51°22.007 3°5.801 15.6642 0.09381 0.522543 -3.020363
2011-12-01 09:35:34 51°22.012 3°5.825 15.6546 0.09381 0.522543 -3.020363
2011-12-01 09:35:39 51°22.017 3°5.849 15.6549 0.09381 0.522533 -3.020363
2011-12-01 09:35:44 51°22.022 3°5.872 15.6739 0.09381 0.522533 -3.020363
2011-12-01 09:35:49 51°22.026 3°5.896 15.6627 0.09381 0.522533 -3.020363
2011-12-01 09:35:54 51°22.032 3°5.919 15.6696 0.09381 0.522533 -3.020363
2011-12-01 09:35:59 51°22.036 3°5.942 15.6824 0.09381 0.522515 -3.020363
2011-12-01 09:36:04 51°22.04 3°5.966 15.6635 0.09381 0.522533 -3.020363
2011-12-01 09:36:09 51°22.046 3°5.99 15.6642 0.09381 0.522524 -3.020363
2011-12-01 09:36:14 51°22.05 3°6.013 15.6747 0.09381 0.522524 -3.020363
2011-12-01 09:36:19 51°22.054 3°6.036 15.6716 0.09381 0.522543 -3.020363
2011-12-01 09:36:24 51°22.059 3°6.06 15.6608 0.09381 0.522543 -3.020363
2011-12-01 09:36:29 51°22.063 3°6.083 15.6783 0.09381 0.522533 -3.020363
2011-12-01 09:36:34 51°22.068 3°6.106 15.6808 0.09381 0.522543 -3.020363
2011-12-01 09:36:39 51°22.072 3°6.129 15.6809 0.09381 0.522543 -3.020363
2011-12-01 09:36:44 51°22.076 3°6.153 15.6856 0.09381 0.522552 -3.020363
2011-12-01 09:36:49 51°22.081 3°6.177 15.6767 0.09381 0.522533 -3.020363
2011-12-01 09:36:54 51°22.086 3°6.2 15.6917 0.09381 0.522533 -3.020363
2011-12-01 09:36:59 51°22.09 3°6.224 15.682 0.09381 0.522543 -3.020363
2011-12-01 09:37:04 51°22.095 3°6.248 15.683 0.09381 0.522533 -3.020363
2011-12-01 09:37:09 51°22.1 3°6.272 15.69 0.09381 0.522524 -3.020363
2011-12-01 09:37:14 51°22.105 3°6.295 15.6873 0.09381 0.522533 -3.020363
2011-12-01 09:37:19 51°22.11 3°6.318 15.7041 0.09381 0.522533 -3.020363
2011-12-01 09:37:24 51°22.115 3°6.342 15.6909 0.09381 0.522533 -3.020363
2011-12-01 09:37:29 51°22.121 3°6.365 15.6613 0.09381 0.522543 -3.020363
2011-12-01 09:37:34 51°22.126 3°6.387 15.7156 0.09381 0.522515 -3.020363
2011-12-01 09:37:39 51°22.13 3°6.41 15.705 0.09381 0.522543 -3.020363
2011-12-01 09:37:44 51°22.136 3°6.434 15.6871 0.09381 0.522533 -3.020363
2011-12-01 09:37:49 51°22.142 3°6.457 15.6996 0.09381 0.522524 -3.020363
2011-12-01 09:37:55 51°22.148 3°6.484 15.7133 0.09381 0.522524 -3.020363
2011-12-01 09:37:59 51°22.153 3°6.503 15.697 0.09381 0.522533 -3.020363
2011-12-01 09:38:04 51°22.159 3°6.526 15.7022 0.09381 0.522524 -3.020363
2011-12-01 09:38:09 51°22.164 3°6.549 15.7104 0.09381 0.522524 -3.020363
2011-12-01 09:38:14 51°22.17 3°6.571 15.6806 0.09381 0.522524 -3.020363
2011-12-01 09:38:19 51°22.176 3°6.594 15.6992 0.09381 0.522515 -3.020363
2011-12-01 09:38:24 51°22.181 3°6.617 15.6943 0.09381 0.522515 -3.020363
2011-12-01 09:38:29 51°22.186 3°6.64 15.7185 0.09381 0.522505 -3.020363
2011-12-01 09:38:34 51°22.191 3°6.664 15.6867 0.09381 0.522533 -3.020363
2011-12-01 09:38:39 51°22.197 3°6.687 15.7128 0.09381 0.522505 -3.020363
2011-12-01 09:38:44 51°22.2 3°6.71 15.7032 0.09381 0.522533 -3.020363
2011-12-01 09:38:49 51°22.206 3°6.733 15.7213 0.09381 0.522524 -3.020363
2011-12-01 09:38:54 51°22.209 3°6.757 15.6996 0.09381 0.522524 -3.020363
2011-12-01 09:38:59 51°22.214 3°6.78 15.7131 0.09381 0.522524 -3.020363
2011-12-01 09:39:04 51°22.218 3°6.803 15.7347 0.09381 0.522515 -3.020363
2011-12-01 09:39:09 51°22.222 3°6.827 15.7116 0.09381 0.522533 -3.020363
2011-12-01 09:39:14 51°22.228 3°6.849 15.7227 0.09381 0.522505 -3.020363
2011-12-01 09:39:19 51°22.232 3°6.873 15.7287 0.09381 0.522524 -3.020363
2011-12-01 09:39:24 51°22.238 3°6.895 15.7081 0.09381 0.522524 -3.020363
2011-12-01 09:39:29 51°22.243 3°6.918 15.7256 0.09381 0.522505 -3.020363
2011-12-01 09:39:34 51°22.248 3°6.941 15.7277 0.09381 0.522505 -3.020363
2011-12-01 09:39:39 51°22.254 3°6.964 15.7131 0.09381 0.522505 -3.020363
2011-12-01 09:39:44 51°22.259 3°6.987 15.7179 0.09381 0.522486 -3.020363
2011-12-01 09:39:49 51°22.264 3°7.01 15.7337 0.09381 0.522515 -3.020363
2011-12-01 09:39:54 51°22.269 3°7.034 15.7018 0.09381 0.522515 -3.020363
2011-12-01 09:39:59 51°22.275 3°7.057 15.7525 0.09381 0.522486 -3.020363
2011-12-01 09:40:04 51°22.279 3°7.08 15.7284 0.09381 0.522515 -3.020363
2011-12-01 09:40:09 51°22.286 3°7.103 15.7209 0.09381 0.522505 -3.020363
2011-12-01 09:40:14 51°22.29 3°7.126 15.7373 0.09381 0.522515 -3.020363
2011-12-01 09:40:19 51°22.296 3°7.149 15.733 0.09381 0.522505 -3.020363
2011-12-01 09:40:24 51°22.301 3°7.172 15.7421 0.09381 0.522505 -3.020363